Time,TemperatureF,DewpointF,PressureIn,WindDirection,WindDirectionDegrees,WindSpeedMPH,WindSpeedGustMPH,Humidity,HourlyPrecipIn,Conditions,Clouds,dailyrainin,SoftwareType,DateUTC
2013-06-05 00:00:00,56.7,52.9,30.12,WSW,245,0.0,0.0,87,0.00,,,0.00,Wunderground v.1.15,2013-06-05 04:00:00,
2013-06-05 00:05:00,56.5,53.0,30.12,SSW,207,0.0,1.0,88,0.00,,,0.00,Wunderground v.1.15,2013-06-05 04:05:00,
2013-06-05 00:10:00,56.5,53.0,30.12,WSW,246,1.0,1.0,88,0.00,,,0.00,Wunderground v.1.15,2013-06-05 04:10:00,
2013-06-05 00:15:00,56.4,52.9,30.12,WSW,246,1.0,1.0,88,0.00,,,0.00,Wunderground v.1.15,2013-06-05 04:15:00,
2013-06-05 00:20:00,56.1,52.6,30.12,WSW,246,0.0,0.0,88,0.00,,,0.00,Wunderground v.1.15,2013-06-05 04:20:00,
2013-06-05 00:25:00,55.8,52.6,30.12,WSW,247,0.0,0.0,89,0.00,,,0.00,Wunderground v.1.15,2013-06-05 04:25:00,
2013-06-05 00:30:00,55.6,52.7,30.12,WSW,246,0.0,0.0,90,0.00,,,0.00,Wunderground v.1.15,2013-06-05 04:30:00,
2013-06-05 00:35:00,55.8,53.2,30.12,ESE,102,1.0,2.0,91,0.00,,,0.00,Wunderground v.1.15,2013-06-05 04:35:00,
2013-06-05 00:40:00,55.9,53.3,30.12,ESE,113,1.0,1.0,91,0.00,,,0.00,Wunderground v.1.15,2013-06-05 04:40:00,
2013-06-05 00:45:00,55.6,52.7,30.12,ESE,113,0.0,1.0,90,0.00,,,0.00,Wunderground v.1.15,2013-06-05 04:45:00,
2013-06-05 00:50:00,55.4,52.8,30.12,ESE,113,0.0,0.0,91,0.00,,,0.00,Wunderground v.1.15,2013-06-05 04:50:00,
2013-06-05 00:55:00,55.3,52.7,30.12,ESE,113,0.0,1.0,91,0.00,,,0.00,Wunderground v.1.15,2013-06-05 04:55:00,
2013-06-05 01:00:00,55.1,52.8,30.12,WSW,243,1.0,1.0,92,0.00,,,0.00,Wunderground v.1.15,2013-06-05 05:00:00,
2013-06-05 01:05:00,54.9,52.6,30.12,WSW,243,1.0,1.0,92,0.00,,,0.00,Wunderground v.1.15,2013-06-05 05:05:00,
2013-06-05 01:10:00,54.8,52.8,30.11,WSW,243,0.0,0.0,93,0.00,,,0.00,Wunderground v.1.15,2013-06-05 05:10:00,
2013-06-05 01:15:00,54.7,52.7,30.11,WSW,243,0.0,0.0,93,0.00,,,0.00,Wunderground v.1.15,2013-06-05 05:15:00,
2013-06-05 01:20:00,54.6,52.6,30.11,WSW,243,0.0,0.0,93,0.00,,,0.00,Wunderground v.1.15,2013-06-05 05:20:00,
2013-06-05 01:25:00,54.5,52.5,30.11,SSW,200,0.0,1.0,93,0.00,,,0.00,Wunderground v.1.15,2013-06-05 05:25:00,
2013-06-05 01:30:00,54.3,52.3,30.11,SSW,200,0.0,0.0,93,0.00,,,0.00,Wunderground v.1.15,2013-06-05 05:30:00,
2013-06-05 01:35:00,54.1,52.1,30.11,SSW,205,0.0,1.0,93,0.00,,,0.00,Wunderground v.1.15,2013-06-05 05:35:00,
2013-06-05 01:40:00,53.9,51.9,30.11,WSW,243,1.0,1.0,93,0.00,,,0.00,Wunderground v.1.15,2013-06-05 05:40:00,
2013-06-05 01:45:00,53.9,51.9,30.11,WSW,243,1.0,1.0,93,0.00,,,0.00,Wunderground v.1.15,2013-06-05 05:45:00,
2013-06-05 01:50:00,53.8,51.8,30.11,WSW,243,0.0,0.0,93,0.00,,,0.00,Wunderground v.1.15,2013-06-05 05:50:00,
2013-06-05 01:55:00,53.7,51.7,30.11,WSW,243,0.0,0.0,93,0.00,,,0.00,Wunderground v.1.15,2013-06-05 05:55:00,
2013-06-05 02:01:00,53.4,51.4,30.11,WSW,243,0.0,0.0,93,0.00,,,0.00,Wunderground v.1.15,2013-06-05 06:01:00,
2013-06-05 02:05:00,53.3,51.6,30.11,WSW,243,0.0,0.0,94,0.00,,,0.00,Wunderground v.1.15,2013-06-05 06:05:00,
2013-06-05 02:10:00,53.2,51.5,30.11,SW,215,0.0,0.0,94,0.00,,,0.00,Wunderground v.1.15,2013-06-05 06:10:00,
2013-06-05 02:15:00,53.2,51.5,30.11,SSE,154,0.0,0.0,94,0.00,,,0.00,Wunderground v.1.15,2013-06-05 06:15:00,
2013-06-05 02:20:00,53.2,51.5,30.11,SSE,153,0.0,0.0,94,0.00,,,0.00,Wunderground v.1.15,2013-06-05 06:20:00,
2013-06-05 02:25:00,53.0,51.3,30.11,SSE,153,0.0,0.0,94,0.00,,,0.00,Wunderground v.1.15,2013-06-05 06:25:00,
2013-06-05 02:30:00,53.0,51.6,30.11,SSE,153,0.0,0.0,95,0.00,,,0.00,Wunderground v.1.15,2013-06-05 06:30:00,
2013-06-05 02:35:00,53.1,51.7,30.11,SSE,154,0.0,0.0,95,0.00,,,0.00,Wunderground v.1.15,2013-06-05 06:35:00,
2013-06-05 02:40:00,53.3,51.9,30.11,WSW,238,0.0,0.0,95,0.00,,,0.00,Wunderground v.1.15,2013-06-05 06:40:00,
2013-06-05 02:45:00,53.6,52.2,30.11,WSW,257,0.0,2.0,95,0.00,,,0.00,Wunderground v.1.15,2013-06-05 06:45:00,
2013-06-05 02:50:00,53.9,52.5,30.11,West,262,1.0,1.0,95,0.00,,,0.00,Wunderground v.1.15,2013-06-05 06:50:00,
2013-06-05 02:55:00,54.0,52.6,30.11,WSW,249,2.0,2.0,95,0.00,,,0.00,Wunderground v.1.15,2013-06-05 06:55:00,
2013-06-05 03:00:00,54.1,52.7,30.11,WSW,248,1.0,1.0,95,0.00,,,0.00,Wunderground v.1.15,2013-06-05 07:00:00,
2013-06-05 03:05:00,54.3,52.9,30.11,WSW,248,0.0,1.0,95,0.00,,,0.00,Wunderground v.1.15,2013-06-05 07:05:00,
2013-06-05 03:10:00,54.3,52.6,30.11,WSW,248,0.0,0.0,94,0.00,,,0.00,Wunderground v.1.15,2013-06-05 07:10:00,
2013-06-05 03:15:00,54.5,52.8,30.11,WSW,249,0.0,0.0,94,0.00,,,0.00,Wunderground v.1.15,2013-06-05 07:15:00,
2013-06-05 03:20:00,54.5,52.8,30.11,WSW,249,0.0,0.0,94,0.00,,,0.00,Wunderground v.1.15,2013-06-05 07:20:00,
2013-06-05 03:25:00,54.6,52.9,30.11,WSW,250,0.0,0.0,94,0.00,,,0.00,Wunderground v.1.15,2013-06-05 07:25:00,
2013-06-05 03:30:00,54.8,53.1,30.11,WSW,250,0.0,0.0,94,0.00,,,0.00,Wunderground v.1.15,2013-06-05 07:30:00,
2013-06-05 03:35:00,54.9,53.2,30.11,WSW,250,0.0,0.0,94,0.00,,,0.00,Wunderground v.1.15,2013-06-05 07:35:00,
2013-06-05 03:40:00,54.9,53.2,30.11,WSW,250,0.0,0.0,94,0.00,,,0.00,Wunderground v.1.15,2013-06-05 07:40:00,
2013-06-05 03:45:00,55.0,53.3,30.11,WSW,250,0.0,0.0,94,0.00,,,0.00,Wunderground v.1.15,2013-06-05 07:45:00,
2013-06-05 03:55:00,55.3,53.6,30.12,WSW,250,0.0,0.0,94,0.00,,,0.00,Wunderground v.1.15,2013-06-05 07:55:00,
2013-06-05 04:01:00,55.3,53.3,30.12,WSW,250,0.0,0.0,93,0.00,,,0.00,Wunderground v.1.15,2013-06-05 08:01:00,
2013-06-05 04:10:00,55.4,53.4,30.12,WSW,250,0.0,0.0,93,0.00,,,0.00,Wunderground v.1.15,2013-06-05 08:10:00,
2013-06-05 04:15:00,55.5,53.8,30.12,WSW,250,0.0,0.0,94,0.00,,,0.00,Wunderground v.1.15,2013-06-05 08:15:00,
2013-06-05 04:20:00,55.6,53.6,30.12,WSW,250,0.0,0.0,93,0.00,,,0.00,Wunderground v.1.15,2013-06-05 08:20:00,
2013-06-05 04:25:00,55.7,53.7,30.12,WSW,250,0.0,0.0,93,0.00,,,0.00,Wunderground v.1.15,2013-06-05 08:25:00,
2013-06-05 04:30:00,55.8,53.8,30.12,WSW,250,0.0,0.0,93,0.00,,,0.00,Wunderground v.1.15,2013-06-05 08:30:00,
2013-06-05 04:35:00,55.8,53.8,30.12,WSW,250,0.0,0.0,93,0.00,,,0.00,Wunderground v.1.15,2013-06-05 08:35:00,
2013-06-05 04:45:00,55.7,53.4,30.12,WSW,250,0.0,0.0,92,0.00,,,0.00,Wunderground v.1.15,2013-06-05 08:45:00,
2013-06-05 04:50:00,55.6,53.3,30.12,WSW,250,0.0,0.0,92,0.00,,,0.00,Wunderground v.1.15,2013-06-05 08:50:00,
2013-06-05 04:55:00,55.5,53.2,30.12,WSW,250,0.0,0.0,92,0.00,,,0.00,Wunderground v.1.15,2013-06-05 08:55:00,
2013-06-05 05:00:00,55.6,53.6,30.13,WSW,250,0.0,0.0,93,0.00,,,0.00,Wunderground v.1.15,2013-06-05 09:00:00,
2013-06-05 05:05:00,55.7,53.4,30.13,WSW,250,0.0,0.0,92,0.00,,,0.00,Wunderground v.1.15,2013-06-05 09:05:00,
2013-06-05 05:10:00,55.8,53.5,30.12,WSW,250,0.0,0.0,92,0.00,,,0.00,Wunderground v.1.15,2013-06-05 09:10:00,
2013-06-05 05:15:00,55.9,53.9,30.13,WSW,250,0.0,0.0,93,0.00,,,0.00,Wunderground v.1.15,2013-06-05 09:15:00,
2013-06-05 05:20:00,56.0,54.0,30.13,WSW,258,0.0,1.0,93,0.00,,,0.00,Wunderground v.1.15,2013-06-05 09:20:00,
2013-06-05 05:25:00,56.0,54.0,30.13,West,259,1.0,1.0,93,0.00,,,0.00,Wunderground v.1.15,2013-06-05 09:25:00,
2013-06-05 05:30:00,55.9,53.9,30.13,WSW,258,0.0,0.0,93,0.00,,,0.00,Wunderground v.1.15,2013-06-05 09:30:00,
2013-06-05 05:35:00,55.8,53.8,30.13,WSW,258,0.0,0.0,93,0.00,,,0.00,Wunderground v.1.15,2013-06-05 09:35:00,
2013-06-05 05:40:00,55.5,53.5,30.13,WSW,258,0.0,0.0,93,0.00,,,0.00,Wunderground v.1.15,2013-06-05 09:40:00,
2013-06-05 05:45:00,55.4,53.4,30.13,West,259,0.0,0.0,93,0.00,,,0.00,Wunderground v.1.15,2013-06-05 09:45:00,
2013-06-05 05:50:00,55.1,53.1,30.13,WSW,258,0.0,0.0,93,0.00,,,0.00,Wunderground v.1.15,2013-06-05 09:50:00,
2013-06-05 05:55:00,54.9,53.2,30.13,WSW,258,0.0,0.0,94,0.00,,,0.00,Wunderground v.1.15,2013-06-05 09:55:00,
2013-06-05 06:01:00,54.7,53.0,30.13,WSW,258,0.0,0.0,94,0.00,,,0.00,Wunderground v.1.15,2013-06-05 10:01:00,
2013-06-05 06:05:00,54.6,52.9,30.13,West,259,0.0,0.0,94,0.00,,,0.00,Wunderground v.1.15,2013-06-05 10:05:00,
2013-06-05 06:10:00,54.3,52.6,30.13,WSW,258,0.0,0.0,94,0.00,,,0.00,Wunderground v.1.15,2013-06-05 10:10:00,
2013-06-05 06:15:00,54.3,52.9,30.14,West,259,0.0,0.0,95,0.00,,,0.00,Wunderground v.1.15,2013-06-05 10:15:00,
2013-06-05 06:20:00,54.4,53.0,30.14,WSW,258,0.0,0.0,95,0.00,,,0.00,Wunderground v.1.15,2013-06-05 10:20:00,
2013-06-05 06:25:00,54.6,53.2,30.13,West,259,0.0,0.0,95,0.00,,,0.00,Wunderground v.1.15,2013-06-05 10:25:00,
2013-06-05 06:30:00,54.7,53.3,30.14,West,259,0.0,0.0,95,0.00,,,0.00,Wunderground v.1.15,2013-06-05 10:30:00,
2013-06-05 06:35:00,55.0,53.6,30.14,WSW,258,0.0,0.0,95,0.00,,,0.00,Wunderground v.1.15,2013-06-05 10:35:00,
2013-06-05 06:40:00,55.3,53.9,30.14,ESE,113,0.0,0.0,95,0.00,,,0.00,Wunderground v.1.15,2013-06-05 10:40:00,
2013-06-05 06:45:00,55.6,54.2,30.14,ESE,113,0.0,0.0,95,0.00,,,0.00,Wunderground v.1.15,2013-06-05 10:45:00,
2013-06-05 06:50:00,56.0,54.3,30.14,ESE,113,0.0,0.0,94,0.00,,,0.00,Wunderground v.1.15,2013-06-05 10:50:00,
2013-06-05 06:55:00,56.2,54.5,30.14,ESE,113,0.0,0.0,94,0.00,,,0.00,Wunderground v.1.15,2013-06-05 10:55:00,
2013-06-05 07:00:00,56.3,54.3,30.14,ESE,114,0.0,1.0,93,0.00,,,0.00,Wunderground v.1.15,2013-06-05 11:00:00,
2013-06-05 07:05:00,56.2,54.2,30.15,SSW,203,0.0,1.0,93,0.00,,,0.00,Wunderground v.1.15,2013-06-05 11:05:00,
2013-06-05 07:10:00,56.4,54.4,30.15,West,266,1.0,2.0,93,0.00,,,0.00,Wunderground v.1.15,2013-06-05 11:10:00,
2013-06-05 07:15:00,56.6,54.6,30.15,West,269,1.0,2.0,93,0.00,,,0.00,Wunderground v.1.15,2013-06-05 11:15:00,
2013-06-05 07:20:00,56.8,54.8,30.15,WSW,258,1.0,1.0,93,0.00,,,0.00,Wunderground v.1.15,2013-06-05 11:20:00,
2013-06-05 07:25:00,57.0,54.7,30.15,West,280,1.0,1.0,92,0.00,,,0.00,Wunderground v.1.15,2013-06-05 11:25:00,
2013-06-05 07:30:00,57.2,54.6,30.15,West,280,0.0,0.0,91,0.00,,,0.00,Wunderground v.1.15,2013-06-05 11:30:00,
2013-06-05 07:35:00,57.5,54.9,30.15,West,280,0.0,0.0,91,0.00,,,0.00,Wunderground v.1.15,2013-06-05 11:35:00,
2013-06-05 07:40:00,57.9,55.0,30.15,West,280,0.0,0.0,90,0.00,,,0.00,Wunderground v.1.15,2013-06-05 11:40:00,
2013-06-05 07:42:00,58.0,55.1,30.15,West,280,0.0,0.0,90,0.00,,,0.00,Wunderground v.1.15,2013-06-05 11:42:00,
2013-06-05 07:44:00,58.2,54.7,30.15,West,280,0.0,1.0,88,0.00,,,0.00,Wunderground v.1.15,2013-06-05 11:44:00,
2013-06-05 07:47:00,58.3,55.1,30.16,West,280,0.0,1.0,89,0.00,,,0.00,Wunderground v.1.15,2013-06-05 11:47:00,
2013-06-05 07:48:00,58.4,54.9,30.15,West,280,0.0,1.0,88,0.00,,,0.00,Wunderground v.1.15,2013-06-05 11:48:00,
2013-06-05 07:49:00,58.4,54.9,30.16,West,280,0.0,1.0,88,0.00,,,0.00,Wunderground v.1.15,2013-06-05 11:49:00,
2013-06-05 07:50:00,58.5,55.0,30.16,West,280,0.0,0.0,88,0.00,,,0.00,Wunderground v.1.15,2013-06-05 11:50:00,
2013-06-05 07:52:00,58.7,55.2,30.16,WSW,257,0.0,1.0,88,0.00,,,0.00,Wunderground v.1.15,2013-06-05 11:52:00,
2013-06-05 07:55:00,58.8,54.9,30.16,SSW,193,0.0,1.0,87,0.00,,,0.00,Wunderground v.1.15,2013-06-05 11:55:00,
2013-06-05 07:56:00,58.8,54.9,30.16,SSW,198,0.0,1.0,87,0.00,,,0.00,Wunderground v.1.15,2013-06-05 11:56:00,
2013-06-05 07:58:00,58.8,54.6,30.16,SW,225,1.0,1.0,86,0.00,,,0.00,Wunderground v.1.15,2013-06-05 11:58:00,
2013-06-05 07:59:00,58.8,54.6,30.16,SW,225,1.0,1.0,86,0.00,,,0.00,Wunderground v.1.15,2013-06-05 11:59:00,
2013-06-05 08:01:00,58.8,54.9,30.16,South,188,1.0,1.0,87,0.00,,,0.00,Wunderground v.1.15,2013-06-05 12:01:00,
2013-06-05 08:03:00,58.9,54.7,30.16,South,188,1.0,1.0,86,0.00,,,0.00,Wunderground v.1.15,2013-06-05 12:03:00,
2013-06-05 08:05:00,59.0,55.1,30.16,South,188,0.0,1.0,87,0.00,,,0.00,Wunderground v.1.15,2013-06-05 12:05:00,
2013-06-05 08:10:00,59.3,55.7,30.15,ESE,122,0.0,1.0,88,0.00,,,0.00,Wunderground v.1.15,2013-06-05 12:10:00,
2013-06-05 08:11:00,59.4,55.8,30.15,SE,131,1.0,2.0,88,0.00,,,0.00,Wunderground v.1.15,2013-06-05 12:11:00,
2013-06-05 08:13:00,59.5,55.9,30.15,SE,139,1.0,2.0,88,0.00,,,0.00,Wunderground v.1.15,2013-06-05 12:13:00,
2013-06-05 08:16:00,59.6,56.0,30.15,SSW,210,1.0,2.0,88,0.00,,,0.00,Wunderground v.1.15,2013-06-05 12:16:00,
2013-06-05 08:17:00,59.7,56.1,30.15,SSE,150,1.0,2.0,88,0.00,,,0.00,Wunderground v.1.15,2013-06-05 12:17:00,
2013-06-05 08:18:00,59.7,56.1,30.15,SSE,158,1.0,2.0,88,0.00,,,0.00,Wunderground v.1.15,2013-06-05 12:18:00,
2013-06-05 08:19:00,59.8,55.9,30.15,SE,132,1.0,2.0,87,0.00,,,0.00,Wunderground v.1.15,2013-06-05 12:19:00,
2013-06-05 08:21:00,59.9,56.0,30.15,ESE,118,1.0,2.0,87,0.00,,,0.00,Wunderground v.1.15,2013-06-05 12:21:00,
2013-06-05 08:23:00,60.0,56.1,30.15,SSE,156,1.0,2.0,87,0.00,,,0.00,Wunderground v.1.15,2013-06-05 12:23:00,
2013-06-05 08:27:00,60.2,55.7,30.15,SW,217,1.0,2.0,85,0.00,,,0.00,Wunderground v.1.15,2013-06-05 12:27:00,
2013-06-05 08:28:00,60.3,55.8,30.15,ESE,105,1.0,2.0,85,0.00,,,0.00,Wunderground v.1.15,2013-06-05 12:28:00,
2013-06-05 08:31:00,60.5,56.3,30.15,SE,135,1.0,2.0,86,0.00,,,0.00,Wunderground v.1.15,2013-06-05 12:31:00,
2013-06-05 08:32:00,60.5,56.0,30.15,SE,136,1.0,2.0,85,0.00,,,0.00,Wunderground v.1.15,2013-06-05 12:32:00,
2013-06-05 08:33:00,60.6,56.1,30.15,SE,135,1.0,2.0,85,0.00,,,0.00,Wunderground v.1.15,2013-06-05 12:33:00,
2013-06-05 08:35:00,60.8,56.6,30.15,SSW,210,1.0,2.0,86,0.00,,,0.00,Wunderground v.1.15,2013-06-05 12:35:00,
2013-06-05 08:39:00,61.1,56.2,30.15,West,259,1.0,2.0,84,0.00,,,0.00,Wunderground v.1.15,2013-06-05 12:39:00,
2013-06-05 08:40:00,61.2,56.3,30.15,SE,131,1.0,1.0,84,0.00,,,0.00,Wunderground v.1.15,2013-06-05 12:40:00,
2013-06-05 08:42:00,61.3,56.4,30.15,WSW,240,1.0,1.0,84,0.00,,,0.00,Wunderground v.1.15,2013-06-05 12:42:00,
2013-06-05 08:45:00,61.5,56.6,30.15,SW,229,1.0,3.0,84,0.00,,,0.00,Wunderground v.1.15,2013-06-05 12:45:00,
2013-06-05 08:46:00,61.5,56.6,30.15,SSW,210,1.0,3.0,84,0.00,,,0.00,Wunderground v.1.15,2013-06-05 12:46:00,
2013-06-05 08:48:00,61.5,56.3,30.15,SW,215,2.0,3.0,83,0.00,,,0.00,Wunderground v.1.15,2013-06-05 12:48:00,
2013-06-05 08:51:00,61.7,55.8,30.15,WSW,241,2.0,2.0,81,0.00,,,0.00,Wunderground v.1.15,2013-06-05 12:51:00,
2013-06-05 08:52:00,61.8,56.2,30.15,WSW,240,2.0,2.0,82,0.00,,,0.00,Wunderground v.1.15,2013-06-05 12:52:00,
2013-06-05 08:53:00,62.0,56.4,30.14,WSW,241,1.0,2.0,82,0.00,,,0.00,Wunderground v.1.15,2013-06-05 12:53:00,
2013-06-05 08:55:00,62.4,56.1,30.15,SSE,160,1.0,2.0,80,0.00,,,0.00,Wunderground v.1.15,2013-06-05 12:55:00,
2013-06-05 08:57:00,62.8,56.2,30.15,South,181,1.0,2.0,79,0.00,,,0.00,Wunderground v.1.15,2013-06-05 12:57:00,
2013-06-05 09:00:00,63.3,56.7,30.15,South,169,1.0,1.0,79,0.00,,,0.00,Wunderground v.1.15,2013-06-05 13:00:00,
2013-06-05 09:03:00,63.6,56.3,30.15,WSW,253,1.0,1.0,77,0.00,,,0.00,Wunderground v.1.15,2013-06-05 13:03:00,
2013-06-05 09:04:00,63.7,56.4,30.15,WNW,285,1.0,1.0,77,0.00,,,0.00,Wunderground v.1.15,2013-06-05 13:04:00,
2013-06-05 09:05:00,63.8,56.8,30.15,WNW,285,1.0,1.0,78,0.00,,,0.00,Wunderground v.1.15,2013-06-05 13:05:00,
2013-06-05 09:06:00,64.0,56.6,30.15,West,264,1.0,1.0,77,0.00,,,0.00,Wunderground v.1.15,2013-06-05 13:06:00,
2013-06-05 09:07:00,64.1,56.4,30.15,West,269,1.0,1.0,76,0.00,,,0.00,Wunderground v.1.15,2013-06-05 13:07:00,
2013-06-05 09:12:00,64.7,57.0,30.15,WNW,290,1.0,1.0,76,0.00,,,0.00,Wunderground v.1.15,2013-06-05 13:12:00,
2013-06-05 09:14:00,65.0,57.6,30.15,West,274,0.0,1.0,77,0.00,,,0.00,Wunderground v.1.15,2013-06-05 13:14:00,
2013-06-05 09:15:00,65.2,57.1,30.15,West,271,0.0,1.0,75,0.00,,,0.00,Wunderground v.1.15,2013-06-05 13:15:00,
2013-06-05 09:17:00,65.8,56.9,30.15,West,259,0.0,1.0,73,0.00,,,0.00,Wunderground v.1.15,2013-06-05 13:17:00,
2013-06-05 09:18:00,66.0,57.1,30.15,SSW,212,0.0,1.0,73,0.00,,,0.00,Wunderground v.1.15,2013-06-05 13:18:00,
2013-06-05 09:22:00,66.5,56.0,30.15,WSW,243,0.0,1.0,69,0.00,,,0.00,Wunderground v.1.15,2013-06-05 13:22:00,
2013-06-05 09:24:00,66.9,56.4,30.15,WSW,243,0.0,1.0,69,0.00,,,0.00,Wunderground v.1.15,2013-06-05 13:24:00,
2013-06-05 09:25:00,67.1,56.6,30.15,SW,219,1.0,1.0,69,0.00,,,0.00,Wunderground v.1.15,2013-06-05 13:25:00,
2013-06-05 09:26:00,67.2,56.7,30.15,SSW,211,1.0,1.0,69,0.00,,,0.00,Wunderground v.1.15,2013-06-05 13:26:00,
2013-06-05 09:28:00,67.4,57.7,30.15,SSW,198,1.0,1.0,71,0.00,,,0.00,Wunderground v.1.15,2013-06-05 13:28:00,
2013-06-05 09:30:00,67.7,57.2,30.15,SW,221,1.0,1.0,69,0.00,,,0.00,Wunderground v.1.15,2013-06-05 13:30:00,
2013-06-05 09:32:00,67.9,56.9,30.15,SW,221,1.0,1.0,68,0.00,,,0.00,Wunderground v.1.15,2013-06-05 13:32:00,
2013-06-05 09:36:00,68.7,56.0,30.14,ESE,117,1.0,1.0,64,0.00,,,0.00,Wunderground v.1.15,2013-06-05 13:36:00,
2013-06-05 09:38:00,69.0,55.9,30.14,ESE,110,1.0,2.0,63,0.00,,,0.00,Wunderground v.1.15,2013-06-05 13:38:00,
2013-06-05 09:39:00,69.1,56.4,30.14,SE,135,1.0,2.0,64,0.00,,,0.00,Wunderground v.1.15,2013-06-05 13:39:00,
2013-06-05 09:41:00,69.5,56.3,30.14,SE,135,1.0,1.0,63,0.00,,,0.00,Wunderground v.1.15,2013-06-05 13:41:00,
2013-06-05 09:42:00,69.6,56.9,30.14,SE,135,1.0,1.0,64,0.00,,,0.00,Wunderground v.1.15,2013-06-05 13:42:00,
2013-06-05 09:47:00,69.9,56.7,30.14,NNE,24,1.0,3.0,63,0.00,,,0.00,Wunderground v.1.15,2013-06-05 13:47:00,
2013-06-05 09:48:00,69.8,56.6,30.14,NW,316,1.0,3.0,63,0.00,,,0.00,Wunderground v.1.15,2013-06-05 13:48:00,
2013-06-05 09:53:00,69.9,57.6,30.14,East,86,2.0,3.0,65,0.00,,,0.00,Wunderground v.1.15,2013-06-05 13:53:00,
2013-06-05 09:54:00,69.9,56.7,30.14,East,96,2.0,3.0,63,0.00,,,0.00,Wunderground v.1.15,2013-06-05 13:54:00,
2013-06-05 09:56:00,69.6,56.4,30.13,East,84,2.0,3.0,63,0.00,,,0.00,Wunderground v.1.15,2013-06-05 13:56:00,
2013-06-05 09:57:00,69.6,56.9,30.13,East,85,2.0,3.0,64,0.00,,,0.00,Wunderground v.1.15,2013-06-05 13:57:00,
2013-06-05 10:02:00,69.4,56.3,30.13,ENE,72,2.0,3.0,63,0.00,,,0.00,Wunderground v.1.15,2013-06-05 14:02:00,
2013-06-05 10:03:00,69.4,56.3,30.13,ENE,71,2.0,3.0,63,0.00,,,0.00,Wunderground v.1.15,2013-06-05 14:03:00,
2013-06-05 10:04:00,69.4,56.7,30.13,ENE,78,2.0,3.0,64,0.00,,,0.00,Wunderground v.1.15,2013-06-05 14:04:00,
2013-06-05 10:06:00,69.3,56.6,30.13,ENE,71,2.0,3.0,64,0.00,,,0.00,Wunderground v.1.15,2013-06-05 14:06:00,
2013-06-05 10:08:00,69.3,55.7,30.13,ESE,115,2.0,3.0,62,0.00,,,0.00,Wunderground v.1.15,2013-06-05 14:08:00,
2013-06-05 10:10:00,69.6,56.9,30.13,NNE,30,2.0,2.0,64,0.00,,,0.00,Wunderground v.1.15,2013-06-05 14:10:00,
2013-06-05 10:11:00,69.8,57.5,30.13,East,101,2.0,2.0,65,0.00,,,0.00,Wunderground v.1.15,2013-06-05 14:11:00,
2013-06-05 10:12:00,69.9,57.2,30.13,NE,56,2.0,2.0,64,0.00,,,0.00,Wunderground v.1.15,2013-06-05 14:12:00,
2013-06-05 10:16:00,70.4,56.8,30.12,East,95,2.0,2.0,62,0.00,,,0.00,Wunderground v.1.15,2013-06-05 14:16:00,
2013-06-05 10:17:00,70.4,55.8,30.12,East,83,2.0,2.0,60,0.00,,,0.00,Wunderground v.1.15,2013-06-05 14:17:00,
2013-06-05 10:18:00,70.5,56.4,30.12,East,84,2.0,2.0,61,0.00,,,0.00,Wunderground v.1.15,2013-06-05 14:18:00,
2013-06-05 10:19:00,70.5,57.3,30.12,East,83,1.0,2.0,63,0.00,,,0.00,Wunderground v.1.15,2013-06-05 14:19:00,
2013-06-05 10:23:00,71.2,58.0,30.12,NW,314,1.0,2.0,63,0.00,,,0.00,Wunderground v.1.15,2013-06-05 14:23:00,
2013-06-05 10:24:00,71.3,56.7,30.12,NW,313,1.0,2.0,60,0.00,,,0.00,Wunderground v.1.15,2013-06-05 14:24:00,
2013-06-05 10:26:00,71.7,57.5,30.12,ENE,74,1.0,3.0,61,0.00,,,0.00,Wunderground v.1.15,2013-06-05 14:26:00,
2013-06-05 10:27:00,71.7,55.7,30.12,ENE,63,1.0,3.0,57,0.00,,,0.00,Wunderground v.1.15,2013-06-05 14:27:00,
2013-06-05 10:29:00,71.9,56.8,30.12,ENE,63,1.0,3.0,59,0.00,,,0.00,Wunderground v.1.15,2013-06-05 14:29:00,
2013-06-05 10:30:00,72.1,57.0,30.11,North,9,1.0,4.0,59,0.00,,,0.00,Wunderground v.1.15,2013-06-05 14:30:00,
2013-06-05 10:32:00,72.2,55.6,30.12,NE,52,1.0,4.0,56,0.00,,,0.00,Wunderground v.1.15,2013-06-05 14:32:00,
2013-06-05 10:34:00,71.9,53.8,30.12,NNE,30,1.0,4.0,53,0.00,,,0.00,Wunderground v.1.15,2013-06-05 14:34:00,
2013-06-05 10:35:00,71.8,54.3,30.12,ENE,75,1.0,4.0,54,0.00,,,0.00,Wunderground v.1.15,2013-06-05 14:35:00,
2013-06-05 10:37:00,71.7,53.7,30.12,East,79,2.0,4.0,53,0.00,,,0.00,Wunderground v.1.15,2013-06-05 14:37:00,
2013-06-05 10:40:00,71.6,54.6,30.12,NE,56,2.0,3.0,55,0.00,,,0.00,Wunderground v.1.15,2013-06-05 14:40:00,
2013-06-05 10:42:00,71.5,54.5,30.12,NE,50,2.0,3.0,55,0.00,,,0.00,Wunderground v.1.15,2013-06-05 14:42:00,
2013-06-05 10:43:00,71.4,54.9,30.12,ENE,71,2.0,3.0,56,0.00,,,0.00,Wunderground v.1.15,2013-06-05 14:43:00,
2013-06-05 10:44:00,71.4,54.9,30.12,NNE,18,2.0,3.0,56,0.00,,,0.00,Wunderground v.1.15,2013-06-05 14:44:00,
2013-06-05 10:47:00,71.4,54.4,30.12,East,101,2.0,3.0,55,0.00,,,0.00,Wunderground v.1.15,2013-06-05 14:47:00,
2013-06-05 10:48:00,71.4,54.4,30.12,East,91,2.0,3.0,55,0.00,,,0.00,Wunderground v.1.15,2013-06-05 14:48:00,
2013-06-05 10:49:00,71.4,54.4,30.12,ENE,65,2.0,3.0,55,0.00,,,0.00,Wunderground v.1.15,2013-06-05 14:49:00,
2013-06-05 10:50:00,71.5,55.5,30.12,ENE,69,2.0,2.0,57,0.00,,,0.00,Wunderground v.1.15,2013-06-05 14:50:00,
2013-06-05 10:51:00,71.7,56.6,30.12,SE,136,2.0,2.0,59,0.00,,,0.00,Wunderground v.1.15,2013-06-05 14:51:00,
2013-06-05 10:53:00,72.1,55.0,30.12,South,177,2.0,2.0,55,0.00,,,0.00,Wunderground v.1.15,2013-06-05 14:53:00,
2013-06-05 10:57:00,72.4,54.8,30.12,South,169,2.0,3.0,54,0.00,,,0.00,Wunderground v.1.15,2013-06-05 14:57:00,
2013-06-05 10:59:00,72.5,54.9,30.12,East,88,2.0,3.0,54,0.00,,,0.00,Wunderground v.1.15,2013-06-05 14:59:00,
2013-06-05 11:00:00,72.5,54.9,30.12,NE,51,2.0,3.0,54,0.00,,,0.00,Wunderground v.1.15,2013-06-05 15:00:00,
2013-06-05 11:01:00,72.4,55.8,30.12,NE,41,2.0,3.0,56,0.00,,,0.00,Wunderground v.1.15,2013-06-05 15:01:00,
2013-06-05 11:03:00,72.3,54.2,30.12,NE,37,2.0,3.0,53,0.00,,,0.00,Wunderground v.1.15,2013-06-05 15:03:00,
2013-06-05 11:04:00,72.4,56.3,30.12,North,359,2.0,3.0,57,0.00,,,0.00,Wunderground v.1.15,2013-06-05 15:04:00,
2013-06-05 11:06:00,72.7,55.1,30.11,North,359,2.0,3.0,54,0.00,,,0.00,Wunderground v.1.15,2013-06-05 15:06:00,
2013-06-05 11:07:00,72.8,55.7,30.11,SW,224,2.0,3.0,55,0.00,,,0.00,Wunderground v.1.15,2013-06-05 15:07:00,
2013-06-05 11:12:00,73.1,56.0,30.11,SSW,198,1.0,3.0,55,0.00,,,0.00,Wunderground v.1.15,2013-06-05 15:12:00,
2013-06-05 11:13:00,73.2,55.6,30.11,South,172,1.0,3.0,54,0.00,,,0.00,Wunderground v.1.15,2013-06-05 15:13:00,
2013-06-05 11:14:00,73.3,54.6,30.11,ESE,113,1.0,3.0,52,0.00,,,0.00,Wunderground v.1.15,2013-06-05 15:14:00,
2013-06-05 11:15:00,73.5,55.8,30.11,ESE,114,1.0,3.0,54,0.00,,,0.00,Wunderground v.1.15,2013-06-05 15:15:00,
2013-06-05 11:17:00,73.7,55.0,30.11,West,260,2.0,4.0,52,0.00,,,0.00,Wunderground v.1.15,2013-06-05 15:17:00,
2013-06-05 11:22:00,73.5,53.7,30.11,NW,314,2.0,2.0,50,0.00,,,0.00,Wunderground v.1.15,2013-06-05 15:22:00,
2013-06-05 11:23:00,73.6,55.4,30.11,NW,314,2.0,2.0,53,0.00,,,0.00,Wunderground v.1.15,2013-06-05 15:23:00,
2013-06-05 11:25:00,73.8,55.1,30.11,NW,323,2.0,2.0,52,0.00,,,0.00,Wunderground v.1.15,2013-06-05 15:25:00,
2013-06-05 11:27:00,74.0,54.7,30.11,NNW,340,2.0,2.0,51,0.00,,,0.00,Wunderground v.1.15,2013-06-05 15:27:00,
2013-06-05 11:30:00,74.6,56.3,30.11,ESE,120,1.0,1.0,53,0.00,,,0.00,Wunderground v.1.15,2013-06-05 15:30:00,
2013-06-05 11:32:00,74.7,58.0,30.11,ENE,70,1.0,5.0,56,0.00,,,0.00,Wunderground v.1.15,2013-06-05 15:32:00,
2013-06-05 11:34:00,74.4,56.2,30.11,ENE,59,1.0,5.0,53,0.00,,,0.00,Wunderground v.1.15,2013-06-05 15:34:00,
2013-06-05 11:36:00,74.0,55.3,30.11,East,86,2.0,5.0,52,0.00,,,0.00,Wunderground v.1.15,2013-06-05 15:36:00,
2013-06-05 11:37:00,73.8,55.1,30.11,NNE,23,2.0,5.0,52,0.00,,,0.00,Wunderground v.1.15,2013-06-05 15:37:00,
2013-06-05 11:38:00,73.7,55.5,30.11,ENE,60,3.0,5.0,53,0.00,,,0.00,Wunderground v.1.15,2013-06-05 15:38:00,
2013-06-05 11:41:00,73.5,55.8,30.11,ENE,69,4.0,4.0,54,0.00,,,0.00,Wunderground v.1.15,2013-06-05 15:41:00,
2013-06-05 11:44:00,73.4,55.2,30.11,East,90,4.0,4.0,53,0.00,,,0.00,Wunderground v.1.15,2013-06-05 15:44:00,
2013-06-05 11:45:00,73.4,55.2,30.11,ENE,65,4.0,4.0,53,0.00,,,0.00,Wunderground v.1.15,2013-06-05 15:45:00,
2013-06-05 11:47:00,73.4,55.2,30.11,ENE,67,4.0,6.0,53,0.00,,,0.00,Wunderground v.1.15,2013-06-05 15:47:00,
2013-06-05 11:50:00,73.5,58.3,30.11,NE,42,4.0,5.0,59,0.00,,,0.00,Wunderground v.1.15,2013-06-05 15:50:00,
2013-06-05 11:51:00,73.7,58.0,30.11,ESE,107,4.0,5.0,58,0.00,,,0.00,Wunderground v.1.15,2013-06-05 15:51:00,
2013-06-05 11:52:00,73.7,56.5,30.11,ESE,104,4.0,5.0,55,0.00,,,0.00,Wunderground v.1.15,2013-06-05 15:52:00,
2013-06-05 11:54:00,74.0,54.7,30.11,SE,136,4.0,5.0,51,0.00,,,0.00,Wunderground v.1.15,2013-06-05 15:54:00,
2013-06-05 11:56:00,74.2,54.9,30.11,South,184,4.0,6.0,51,0.00,,,0.00,Wunderground v.1.15,2013-06-05 15:56:00,
2013-06-05 12:00:00,74.1,54.3,30.11,SSE,161,4.0,4.0,50,0.00,,,0.00,Wunderground v.1.15,2013-06-05 16:00:00,
2013-06-05 12:01:00,74.2,54.9,30.11,SE,138,3.0,4.0,51,0.00,,,0.00,Wunderground v.1.15,2013-06-05 16:01:00,
2013-06-05 12:07:00,74.5,55.7,30.10,ESE,120,3.0,4.0,52,0.00,,,0.00,Wunderground v.1.15,2013-06-05 16:07:00,
2013-06-05 12:08:00,74.5,55.7,30.10,NE,39,3.0,4.0,52,0.00,,,0.00,Wunderground v.1.15,2013-06-05 16:08:00,
2013-06-05 12:12:00,74.9,56.1,30.10,WSW,240,3.0,4.0,52,0.00,,,0.00,Wunderground v.1.15,2013-06-05 16:12:00,
2013-06-05 12:15:00,75.2,54.7,30.10,SSW,209,3.0,7.0,49,0.00,,,0.00,Wunderground v.1.15,2013-06-05 16:15:00,
2013-06-05 12:17:00,75.1,54.6,30.10,SW,218,3.0,7.0,49,0.00,,,0.00,Wunderground v.1.15,2013-06-05 16:17:00,
2013-06-05 12:19:00,75.2,55.3,30.10,ENE,75,3.0,7.0,50,0.00,,,0.00,Wunderground v.1.15,2013-06-05 16:19:00,
2013-06-05 12:22:00,75.6,58.8,30.10,SE,136,3.0,5.0,56,0.00,,,0.00,Wunderground v.1.15,2013-06-05 16:22:00,
2013-06-05 12:23:00,75.5,58.7,30.09,SE,131,3.0,6.0,56,0.00,,,0.00,Wunderground v.1.15,2013-06-05 16:23:00,
2013-06-05 12:24:00,75.4,58.6,30.09,SE,136,4.0,6.0,56,0.00,,,0.00,Wunderground v.1.15,2013-06-05 16:24:00,
2013-06-05 12:26:00,75.2,55.8,30.09,South,187,4.0,7.0,51,0.00,,,0.00,Wunderground v.1.15,2013-06-05 16:26:00,
2013-06-05 12:31:00,74.8,55.5,30.09,SSW,198,5.0,8.0,51,0.00,,,0.00,Wunderground v.1.15,2013-06-05 16:31:00,
2013-06-05 12:32:00,74.8,56.0,30.09,East,92,6.0,8.0,52,0.00,,,0.00,Wunderground v.1.15,2013-06-05 16:32:00,
2013-06-05 12:34:00,74.6,55.8,30.09,ENE,75,5.0,8.0,52,0.00,,,0.00,Wunderground v.1.15,2013-06-05 16:34:00,
2013-06-05 12:35:00,74.6,55.3,30.09,East,87,5.0,8.0,51,0.00,,,0.00,Wunderground v.1.15,2013-06-05 16:35:00,
2013-06-05 12:38:00,74.7,55.4,30.09,ESE,108,5.0,8.0,51,0.00,,,0.00,Wunderground v.1.15,2013-06-05 16:38:00,
2013-06-05 12:39:00,74.8,55.5,30.09,SE,132,5.0,8.0,51,0.00,,,0.00,Wunderground v.1.15,2013-06-05 16:39:00,
2013-06-05 12:41:00,74.9,57.1,30.09,SSE,147,5.0,5.0,54,0.00,,,0.00,Wunderground v.1.15,2013-06-05 16:41:00,
2013-06-05 12:42:00,75.0,56.7,30.08,SE,131,5.0,5.0,53,0.00,,,0.00,Wunderground v.1.15,2013-06-05 16:42:00,
2013-06-05 12:47:00,75.4,57.1,30.08,SSE,152,4.0,6.0,53,0.00,,,0.00,Wunderground v.1.15,2013-06-05 16:47:00,
2013-06-05 12:48:00,75.5,57.2,30.08,ESE,122,4.0,6.0,53,0.00,,,0.00,Wunderground v.1.15,2013-06-05 16:48:00,
2013-06-05 12:50:00,75.8,57.4,30.08,SSE,162,4.0,4.0,53,0.00,,,0.00,Wunderground v.1.15,2013-06-05 16:50:00,
2013-06-05 12:55:00,76.2,56.2,30.08,SE,131,3.0,8.0,50,0.00,,,0.00,Wunderground v.1.15,2013-06-05 16:55:00,
2013-06-05 12:56:00,76.1,56.7,30.08,SE,134,3.0,8.0,51,0.00,,,0.00,Wunderground v.1.15,2013-06-05 16:56:00,
2013-06-05 12:57:00,76.1,56.1,30.08,SSW,197,3.0,8.0,50,0.00,,,0.00,Wunderground v.1.15,2013-06-05 16:57:00,
2013-06-05 13:00:00,76.2,56.7,30.08,SE,124,4.0,6.0,51,0.00,,,0.00,Wunderground v.1.15,2013-06-05 17:00:00,
2013-06-05 13:02:00,76.2,56.2,30.08,WNW,283,4.0,6.0,50,0.00,,,0.00,Wunderground v.1.15,2013-06-05 17:02:00,
2013-06-05 13:03:00,76.3,55.2,30.08,South,187,4.0,6.0,48,0.00,,,0.00,Wunderground v.1.15,2013-06-05 17:03:00,
2013-06-05 13:05:00,76.4,56.4,30.08,SE,131,4.0,6.0,50,0.00,,,0.00,Wunderground v.1.15,2013-06-05 17:05:00,
2013-06-05 13:06:00,76.4,56.4,30.08,ESE,106,4.0,6.0,50,0.00,,,0.00,Wunderground v.1.15,2013-06-05 17:06:00,
2013-06-05 13:08:00,76.5,56.5,30.08,SSW,200,3.0,6.0,50,0.00,,,0.00,Wunderground v.1.15,2013-06-05 17:08:00,
2013-06-05 13:10:00,76.6,56.6,30.08,WSW,254,3.0,3.0,50,0.00,,,0.00,Wunderground v.1.15,2013-06-05 17:10:00,
2013-06-05 13:12:00,76.6,56.6,30.07,SE,136,3.0,7.0,50,0.00,,,0.00,Wunderground v.1.15,2013-06-05 17:12:00,
2013-06-05 13:13:00,76.7,56.7,30.08,West,259,3.0,7.0,50,0.00,,,0.00,Wunderground v.1.15,2013-06-05 17:13:00,
2013-06-05 13:14:00,76.7,56.7,30.08,SSW,210,3.0,7.0,50,0.00,,,0.00,Wunderground v.1.15,2013-06-05 17:14:00,
2013-06-05 13:16:00,76.6,54.9,30.07,SE,132,4.0,7.0,47,0.00,,,0.00,Wunderground v.1.15,2013-06-05 17:16:00,
2013-06-05 13:19:00,76.7,56.7,30.08,SE,124,4.0,8.0,50,0.00,,,0.00,Wunderground v.1.15,2013-06-05 17:19:00,
2013-06-05 13:20:00,76.7,56.1,30.08,SE,131,4.0,7.0,49,0.00,,,0.00,Wunderground v.1.15,2013-06-05 17:20:00,
2013-06-05 13:21:00,76.7,56.7,30.08,SSW,198,4.0,7.0,50,0.00,,,0.00,Wunderground v.1.15,2013-06-05 17:21:00,
2013-06-05 13:24:00,76.7,56.7,30.07,SSW,212,4.0,7.0,50,0.00,,,0.00,Wunderground v.1.15,2013-06-05 17:24:00,
2013-06-05 13:27:00,76.6,55.4,30.07,South,190,5.0,7.0,48,0.00,,,0.00,Wunderground v.1.15,2013-06-05 17:27:00,
2013-06-05 13:28:00,76.6,56.6,30.07,SW,225,5.0,7.0,50,0.00,,,0.00,Wunderground v.1.15,2013-06-05 17:28:00,
2013-06-05 13:30:00,76.8,56.8,30.07,SE,134,4.0,7.0,50,0.00,,,0.00,Wunderground v.1.15,2013-06-05 17:30:00,
2013-06-05 13:33:00,76.8,56.2,30.07,SE,146,4.0,7.0,49,0.00,,,0.00,Wunderground v.1.15,2013-06-05 17:33:00,
2013-06-05 13:34:00,76.9,55.7,30.07,SSE,149,4.0,7.0,48,0.00,,,0.00,Wunderground v.1.15,2013-06-05 17:34:00,
2013-06-05 13:35:00,76.9,57.4,30.07,SSW,205,4.0,7.0,51,0.00,,,0.00,Wunderground v.1.15,2013-06-05 17:35:00,
2013-06-05 13:39:00,77.2,57.7,30.07,SSW,207,3.0,7.0,51,0.00,,,0.00,Wunderground v.1.15,2013-06-05 17:39:00,
2013-06-05 13:41:00,77.5,57.4,30.07,SE,134,2.0,3.0,50,0.00,,,0.00,Wunderground v.1.15,2013-06-05 17:41:00,
2013-06-05 13:45:00,77.7,58.1,30.07,SE,132,3.0,8.0,51,0.00,,,0.00,Wunderground v.1.15,2013-06-05 17:45:00,
2013-06-05 13:46:00,77.8,58.2,30.07,SE,127,3.0,8.0,51,0.00,,,0.00,Wunderground v.1.15,2013-06-05 17:46:00,
2013-06-05 13:48:00,77.9,56.6,30.07,SSW,195,4.0,8.0,48,0.00,,,0.00,Wunderground v.1.15,2013-06-05 17:48:00,
2013-06-05 13:50:00,77.9,56.0,30.07,East,101,4.0,4.0,47,0.00,,,0.00,Wunderground v.1.15,2013-06-05 17:50:00,
2013-06-05 13:51:00,77.9,56.0,30.07,SSW,207,5.0,5.0,47,0.00,,,0.00,Wunderground v.1.15,2013-06-05 17:51:00,
2013-06-05 13:52:00,77.9,57.8,30.07,SW,215,5.0,5.0,50,0.00,,,0.00,Wunderground v.1.15,2013-06-05 17:52:00,
2013-06-05 13:54:00,77.8,56.5,30.07,ESE,120,5.0,7.0,48,0.00,,,0.00,Wunderground v.1.15,2013-06-05 17:54:00,
2013-06-05 13:56:00,77.6,58.0,30.07,ESE,120,5.0,7.0,51,0.00,,,0.00,Wunderground v.1.15,2013-06-05 17:56:00,
2013-06-05 13:58:00,77.7,58.1,30.07,South,184,5.0,7.0,51,0.00,,,0.00,Wunderground v.1.15,2013-06-05 17:58:00,
2013-06-05 14:00:00,77.7,57.0,30.07,ESE,108,5.0,5.0,49,0.00,,,0.00,Wunderground v.1.15,2013-06-05 18:00:00,
2013-06-05 14:03:00,77.6,56.9,30.06,South,173,5.0,8.0,49,0.00,,,0.00,Wunderground v.1.15,2013-06-05 18:03:00,
2013-06-05 14:04:00,77.6,56.4,30.06,SE,134,5.0,8.0,48,0.00,,,0.00,Wunderground v.1.15,2013-06-05 18:04:00,
2013-06-05 14:05:00,77.6,56.9,30.06,SSW,200,5.0,8.0,49,0.00,,,0.00,Wunderground v.1.15,2013-06-05 18:05:00,
2013-06-05 14:06:00,77.7,57.0,30.06,SSW,194,4.0,8.0,49,0.00,,,0.00,Wunderground v.1.15,2013-06-05 18:06:00,
2013-06-05 14:07:00,77.7,58.1,30.06,East,88,5.0,8.0,51,0.00,,,0.00,Wunderground v.1.15,2013-06-05 18:07:00,
2013-06-05 14:09:00,77.8,57.7,30.06,SW,214,5.0,8.0,50,0.00,,,0.00,Wunderground v.1.15,2013-06-05 18:09:00,
2013-06-05 14:13:00,78.0,57.3,30.05,ESE,112,4.0,5.0,49,0.00,,,0.00,Wunderground v.1.15,2013-06-05 18:13:00,
2013-06-05 14:14:00,77.9,57.2,30.05,ESE,105,4.0,5.0,49,0.00,,,0.00,Wunderground v.1.15,2013-06-05 18:14:00,
2013-06-05 14:16:00,77.9,57.8,30.05,ESE,108,4.0,6.0,50,0.00,,,0.00,Wunderground v.1.15,2013-06-05 18:16:00,
2013-06-05 14:19:00,77.8,57.1,30.05,SSW,201,4.0,6.0,49,0.00,,,0.00,Wunderground v.1.15,2013-06-05 18:19:00,
2013-06-05 14:20:00,77.8,57.7,30.05,East,94,4.0,5.0,50,0.00,,,0.00,Wunderground v.1.15,2013-06-05 18:20:00,
2013-06-05 14:21:00,77.7,57.6,30.05,SE,136,5.0,5.0,50,0.00,,,0.00,Wunderground v.1.15,2013-06-05 18:21:00,
2013-06-05 14:22:00,77.7,58.1,30.05,ESE,108,5.0,6.0,51,0.00,,,0.00,Wunderground v.1.15,2013-06-05 18:22:00,
2013-06-05 14:26:00,77.6,56.9,30.04,SSE,156,6.0,14.0,49,0.00,,,0.00,Wunderground v.1.15,2013-06-05 18:26:00,
2013-06-05 14:29:00,77.5,57.4,30.04,SE,127,6.0,14.0,50,0.00,,,0.00,Wunderground v.1.15,2013-06-05 18:29:00,
2013-06-05 14:31:00,77.4,57.3,30.04,ESE,112,6.0,6.0,50,0.00,,,0.00,Wunderground v.1.15,2013-06-05 18:31:00,
2013-06-05 14:32:00,77.4,57.3,30.04,ESE,108,6.0,6.0,50,0.00,,,0.00,Wunderground v.1.15,2013-06-05 18:32:00,
2013-06-05 14:33:00,77.4,57.9,30.04,SSW,193,6.0,6.0,51,0.00,,,0.00,Wunderground v.1.15,2013-06-05 18:33:00,
2013-06-05 14:34:00,77.4,57.9,30.04,ENE,64,6.0,6.0,51,0.00,,,0.00,Wunderground v.1.15,2013-06-05 18:34:00,
2013-06-05 14:38:00,77.6,58.0,30.03,ESE,105,6.0,7.0,51,0.00,,,0.00,Wunderground v.1.15,2013-06-05 18:38:00,
2013-06-05 14:39:00,77.6,58.6,30.04,South,190,6.0,7.0,52,0.00,,,0.00,Wunderground v.1.15,2013-06-05 18:39:00,
2013-06-05 14:40:00,77.7,59.7,30.03,ESE,115,6.0,8.0,54,0.00,,,0.00,Wunderground v.1.15,2013-06-05 18:40:00,
2013-06-05 14:42:00,77.8,58.8,30.03,ESE,114,6.0,8.0,52,0.00,,,0.00,Wunderground v.1.15,2013-06-05 18:42:00,
2013-06-05 14:45:00,78.2,60.7,30.03,SSW,211,5.0,9.0,55,0.00,,,0.00,Wunderground v.1.15,2013-06-05 18:45:00,
2013-06-05 14:47:00,78.2,58.0,30.04,SE,131,6.0,9.0,50,0.00,,,0.00,Wunderground v.1.15,2013-06-05 18:47:00,
2013-06-05 14:48:00,78.2,58.6,30.04,WSW,253,6.0,9.0,51,0.00,,,0.00,Wunderground v.1.15,2013-06-05 18:48:00,
2013-06-05 14:50:00,78.2,58.6,30.04,ESE,113,6.0,6.0,51,0.00,,,0.00,Wunderground v.1.15,2013-06-05 18:50:00,
2013-06-05 14:53:00,78.1,59.0,30.04,SSW,198,6.0,13.0,52,0.00,,,0.00,Wunderground v.1.15,2013-06-05 18:53:00,
2013-06-05 14:54:00,78.1,59.0,30.04,SSE,150,6.0,13.0,52,0.00,,,0.00,Wunderground v.1.15,2013-06-05 18:54:00,
2013-06-05 14:56:00,78.0,58.4,30.04,SW,215,7.0,13.0,51,0.00,,,0.00,Wunderground v.1.15,2013-06-05 18:56:00,
2013-06-05 14:59:00,78.1,57.9,30.04,ESE,123,6.0,13.0,50,0.00,,,0.00,Wunderground v.1.15,2013-06-05 18:59:00,
2013-06-05 15:01:00,78.1,57.9,30.04,SSE,149,5.0,5.0,50,0.00,,,0.00,Wunderground v.1.15,2013-06-05 19:01:00,
2013-06-05 15:02:00,78.3,59.8,30.04,SW,215,4.0,5.0,53,0.00,,,0.00,Wunderground v.1.15,2013-06-05 19:02:00,
2013-06-05 15:03:00,78.4,59.3,30.04,WSW,237,4.0,5.0,52,0.00,,,0.00,Wunderground v.1.15,2013-06-05 19:03:00,
2013-06-05 15:05:00,78.5,59.4,30.04,East,101,4.0,6.0,52,0.00,,,0.00,Wunderground v.1.15,2013-06-05 19:05:00,
2013-06-05 15:08:00,78.4,58.8,30.04,SSW,200,5.0,8.0,51,0.00,,,0.00,Wunderground v.1.15,2013-06-05 19:08:00,
2013-06-05 15:11:00,78.5,58.3,30.04,SE,131,5.0,5.0,50,0.00,,,0.00,Wunderground v.1.15,2013-06-05 19:11:00,
2013-06-05 15:12:00,78.4,58.2,30.04,ESE,123,5.0,5.0,50,0.00,,,0.00,Wunderground v.1.15,2013-06-05 19:12:00,
2013-06-05 15:13:00,78.4,57.7,30.04,SSW,195,5.0,5.0,49,0.00,,,0.00,Wunderground v.1.15,2013-06-05 19:13:00,
2013-06-05 15:15:00,78.5,59.4,30.04,SW,221,5.0,5.0,52,0.00,,,0.00,Wunderground v.1.15,2013-06-05 19:15:00,
2013-06-05 15:17:00,78.6,58.4,30.04,South,176,5.0,6.0,50,0.00,,,0.00,Wunderground v.1.15,2013-06-05 19:17:00,
2013-06-05 15:18:00,78.7,58.5,30.04,SW,217,5.0,8.0,50,0.00,,,0.00,Wunderground v.1.15,2013-06-05 19:18:00,
2013-06-05 15:21:00,78.8,58.6,30.04,SW,219,5.0,5.0,50,0.00,,,0.00,Wunderground v.1.15,2013-06-05 19:21:00,
2013-06-05 15:22:00,78.9,59.8,30.04,South,184,5.0,6.0,52,0.00,,,0.00,Wunderground v.1.15,2013-06-05 19:22:00,
2013-06-05 15:24:00,79.0,58.8,30.04,South,169,5.0,6.0,50,0.00,,,0.00,Wunderground v.1.15,2013-06-05 19:24:00,
2013-06-05 15:26:00,79.0,59.3,30.04,South,179,6.0,6.0,51,0.00,,,0.00,Wunderground v.1.15,2013-06-05 19:26:00,
2013-06-05 15:29:00,79.0,59.9,30.04,SE,141,5.0,7.0,52,0.00,,,0.00,Wunderground v.1.15,2013-06-05 19:29:00,
2013-06-05 15:31:00,78.8,59.1,30.03,South,186,5.0,5.0,51,0.00,,,0.00,Wunderground v.1.15,2013-06-05 19:31:00,
2013-06-05 15:33:00,78.8,59.7,30.03,SSE,167,5.0,5.0,52,0.00,,,0.00,Wunderground v.1.15,2013-06-05 19:33:00,
2013-06-05 15:38:00,78.4,59.3,30.03,SSE,151,5.0,9.0,52,0.00,,,0.00,Wunderground v.1.15,2013-06-05 19:38:00,
2013-06-05 15:40:00,78.3,60.3,30.03,South,181,5.0,9.0,54,0.00,,,0.00,Wunderground v.1.15,2013-06-05 19:40:00,
2013-06-05 15:42:00,78.3,59.2,30.03,SE,141,5.0,5.0,52,0.00,,,0.00,Wunderground v.1.15,2013-06-05 19:42:00,
2013-06-05 15:43:00,78.2,59.1,30.03,East,99,5.0,5.0,52,0.00,,,0.00,Wunderground v.1.15,2013-06-05 19:43:00,
2013-06-05 15:46:00,78.2,59.1,30.03,ESE,107,4.0,6.0,52,0.00,,,0.00,Wunderground v.1.15,2013-06-05 19:46:00,
2013-06-05 15:49:00,78.0,59.5,30.03,SW,217,4.0,11.0,53,0.00,,,0.00,Wunderground v.1.15,2013-06-05 19:49:00,
2013-06-05 15:50:00,78.0,59.5,30.03,ESE,117,5.0,11.0,53,0.00,,,0.00,Wunderground v.1.15,2013-06-05 19:50:00,
2013-06-05 15:51:00,77.9,60.4,30.03,South,186,5.0,5.0,55,0.00,,,0.00,Wunderground v.1.15,2013-06-05 19:51:00,
2013-06-05 15:55:00,77.7,60.2,30.04,SSW,203,4.0,6.0,55,0.00,,,0.00,Wunderground v.1.15,2013-06-05 19:55:00,
2013-06-05 15:56:00,77.7,60.2,30.04,SE,140,4.0,6.0,55,0.00,,,0.00,Wunderground v.1.15,2013-06-05 19:56:00,
2013-06-05 15:59:00,77.6,60.2,30.04,ESE,108,4.0,8.0,55,0.00,,,0.00,Wunderground v.1.15,2013-06-05 19:59:00,
2013-06-05 16:00:00,77.6,60.2,30.04,ESE,102,4.0,5.0,55,0.00,,,0.00,Wunderground v.1.15,2013-06-05 20:00:00,
2013-06-05 16:04:00,77.5,59.5,30.04,South,177,4.0,6.0,54,0.00,,,0.00,Wunderground v.1.15,2013-06-05 20:04:00,
2013-06-05 16:05:00,77.5,60.1,30.04,SW,214,4.0,6.0,55,0.00,,,0.00,Wunderground v.1.15,2013-06-05 20:05:00,
2013-06-05 16:06:00,77.5,59.5,30.04,East,96,4.0,6.0,54,0.00,,,0.00,Wunderground v.1.15,2013-06-05 20:06:00,
2013-06-05 16:08:00,77.5,59.5,30.04,SE,131,4.0,6.0,54,0.00,,,0.00,Wunderground v.1.15,2013-06-05 20:08:00,
2013-06-05 16:09:00,77.5,60.1,30.04,ESE,112,4.0,6.0,55,0.00,,,0.00,Wunderground v.1.15,2013-06-05 20:09:00,
2013-06-05 16:10:00,77.5,60.1,30.04,South,188,4.0,4.0,55,0.00,,,0.00,Wunderground v.1.15,2013-06-05 20:10:00,
2013-06-05 16:11:00,77.5,60.1,30.04,ENE,76,4.0,4.0,55,0.00,,,0.00,Wunderground v.1.15,2013-06-05 20:11:00,
2013-06-05 16:13:00,77.5,59.5,30.04,ESE,122,4.0,8.0,54,0.00,,,0.00,Wunderground v.1.15,2013-06-05 20:13:00,
2013-06-05 16:14:00,77.6,60.7,30.04,SW,226,4.0,8.0,56,0.00,,,0.00,Wunderground v.1.15,2013-06-05 20:14:00,
2013-06-05 16:15:00,77.6,60.2,30.04,South,187,4.0,8.0,55,0.00,,,0.00,Wunderground v.1.15,2013-06-05 20:15:00,
2013-06-05 16:17:00,77.5,61.1,30.04,SSE,148,4.0,8.0,57,0.00,,,0.00,Wunderground v.1.15,2013-06-05 20:17:00,
2013-06-05 16:21:00,77.6,60.7,30.03,SSE,157,4.0,6.0,56,0.00,,,0.00,Wunderground v.1.15,2013-06-05 20:21:00,
2013-06-05 16:24:00,77.7,60.2,30.03,ESE,119,5.0,8.0,55,0.00,,,0.00,Wunderground v.1.15,2013-06-05 20:24:00,
2013-06-05 16:26:00,77.9,60.4,30.03,SSW,194,5.0,8.0,55,0.00,,,0.00,Wunderground v.1.15,2013-06-05 20:26:00,
2013-06-05 16:27:00,77.9,60.9,30.03,SE,135,5.0,8.0,56,0.00,,,0.00,Wunderground v.1.15,2013-06-05 20:27:00,
2013-06-05 16:29:00,78.1,61.6,30.03,ESE,117,5.0,8.0,57,0.00,,,0.00,Wunderground v.1.15,2013-06-05 20:29:00,
2013-06-05 16:30:00,78.2,61.2,30.03,SW,231,5.0,5.0,56,0.00,,,0.00,Wunderground v.1.15,2013-06-05 20:30:00,
2013-06-05 16:32:00,78.2,60.7,30.03,South,184,5.0,8.0,55,0.00,,,0.00,Wunderground v.1.15,2013-06-05 20:32:00,
2013-06-05 16:33:00,78.2,60.7,30.03,East,79,5.0,8.0,55,0.00,,,0.00,Wunderground v.1.15,2013-06-05 20:33:00,
2013-06-05 16:36:00,78.1,59.6,30.03,East,91,5.0,9.0,53,0.00,,,0.00,Wunderground v.1.15,2013-06-05 20:36:00,
2013-06-05 16:37:00,78.0,60.0,30.03,East,86,6.0,9.0,54,0.00,,,0.00,Wunderground v.1.15,2013-06-05 20:37:00,
2013-06-05 16:38:00,78.0,60.0,30.03,ESE,113,6.0,9.0,54,0.00,,,0.00,Wunderground v.1.15,2013-06-05 20:38:00,
2013-06-05 16:39:00,78.0,61.0,30.03,SSE,167,6.0,9.0,56,0.00,,,0.00,Wunderground v.1.15,2013-06-05 20:39:00,
2013-06-05 16:42:00,78.3,62.3,30.03,ESE,117,5.0,6.0,58,0.00,,,0.00,Wunderground v.1.15,2013-06-05 20:42:00,
2013-06-05 16:43:00,78.3,60.8,30.03,SW,228,5.0,6.0,55,0.00,,,0.00,Wunderground v.1.15,2013-06-05 20:43:00,
2013-06-05 16:45:00,78.3,60.8,30.03,South,178,5.0,7.0,55,0.00,,,0.00,Wunderground v.1.15,2013-06-05 20:45:00,
2013-06-05 16:47:00,78.3,61.3,30.03,SE,132,4.0,7.0,56,0.00,,,0.00,Wunderground v.1.15,2013-06-05 20:47:00,
2013-06-05 16:51:00,78.5,61.5,30.03,SW,217,4.0,4.0,56,0.00,,,0.00,Wunderground v.1.15,2013-06-05 20:51:00,
2013-06-05 16:54:00,78.5,61.0,30.03,East,91,5.0,7.0,55,0.00,,,0.00,Wunderground v.1.15,2013-06-05 20:54:00,
2013-06-05 16:55:00,78.4,61.4,30.03,SSE,153,4.0,7.0,56,0.00,,,0.00,Wunderground v.1.15,2013-06-05 20:55:00,
2013-06-05 16:56:00,78.3,61.3,30.03,SSW,195,4.0,7.0,56,0.00,,,0.00,Wunderground v.1.15,2013-06-05 20:56:00,
2013-06-05 16:58:00,78.2,60.7,30.03,SE,136,4.0,8.0,55,0.00,,,0.00,Wunderground v.1.15,2013-06-05 20:58:00,
2013-06-05 17:01:00,78.1,62.1,30.02,ESE,112,4.0,4.0,58,0.00,,,0.00,Wunderground v.1.15,2013-06-05 21:01:00,
2013-06-05 17:02:00,78.1,61.1,30.02,SSE,162,4.0,4.0,56,0.00,,,0.00,Wunderground v.1.15,2013-06-05 21:02:00,
2013-06-05 17:04:00,78.1,61.1,30.02,SSE,158,4.0,4.0,56,0.00,,,0.00,Wunderground v.1.15,2013-06-05 21:04:00,
2013-06-05 17:05:00,78.1,60.6,30.02,ESE,123,3.0,4.0,55,0.00,,,0.00,Wunderground v.1.15,2013-06-05 21:05:00,
2013-06-05 17:08:00,78.1,61.6,30.02,ESE,117,3.0,4.0,57,0.00,,,0.00,Wunderground v.1.15,2013-06-05 21:08:00,
2013-06-05 17:09:00,78.3,61.8,30.02,SSE,165,3.0,4.0,57,0.00,,,0.00,Wunderground v.1.15,2013-06-05 21:09:00,
2013-06-05 17:10:00,78.4,61.9,30.02,SE,132,3.0,3.0,57,0.00,,,0.00,Wunderground v.1.15,2013-06-05 21:10:00,
2013-06-05 17:14:00,78.8,61.3,30.02,SW,217,3.0,6.0,55,0.00,,,0.00,Wunderground v.1.15,2013-06-05 21:14:00,
2013-06-05 17:19:00,78.6,61.6,30.02,East,96,4.0,7.0,56,0.00,,,0.00,Wunderground v.1.15,2013-06-05 21:19:00,
2013-06-05 17:20:00,78.5,61.5,30.02,East,98,4.0,5.0,56,0.00,,,0.00,Wunderground v.1.15,2013-06-05 21:20:00,
2013-06-05 17:23:00,78.5,61.5,30.02,East,85,5.0,5.0,56,0.00,,,0.00,Wunderground v.1.15,2013-06-05 21:23:00,
2013-06-05 17:24:00,78.5,61.0,30.02,ESE,108,5.0,5.0,55,0.00,,,0.00,Wunderground v.1.15,2013-06-05 21:24:00,
2013-06-05 17:25:00,78.5,61.5,30.02,SE,131,4.0,5.0,56,0.00,,,0.00,Wunderground v.1.15,2013-06-05 21:25:00,
2013-06-05 17:28:00,78.5,61.5,30.02,SSE,163,3.0,5.0,56,0.00,,,0.00,Wunderground v.1.15,2013-06-05 21:28:00,
2013-06-05 17:29:00,78.5,62.0,30.02,East,86,3.0,5.0,57,0.00,,,0.00,Wunderground v.1.15,2013-06-05 21:29:00,
2013-06-05 17:30:00,78.4,61.4,30.02,East,86,3.0,3.0,56,0.00,,,0.00,Wunderground v.1.15,2013-06-05 21:30:00,
2013-06-05 17:33:00,78.1,61.1,30.01,SSE,150,3.0,4.0,56,0.00,,,0.00,Wunderground v.1.15,2013-06-05 21:33:00,
2013-06-05 17:38:00,77.8,61.8,30.01,SE,127,3.0,5.0,58,0.00,,,0.00,Wunderground v.1.15,2013-06-05 21:38:00,
2013-06-05 17:39:00,77.7,61.7,30.01,East,90,3.0,5.0,58,0.00,,,0.00,Wunderground v.1.15,2013-06-05 21:39:00,
2013-06-05 17:42:00,77.4,61.5,30.01,SSE,148,4.0,4.0,58,0.00,,,0.00,Wunderground v.1.15,2013-06-05 21:42:00,
2013-06-05 17:46:00,77.2,61.8,30.01,SE,132,4.0,6.0,59,0.00,,,0.00,Wunderground v.1.15,2013-06-05 21:46:00,
2013-06-05 17:47:00,77.3,61.9,30.01,SE,142,4.0,6.0,59,0.00,,,0.00,Wunderground v.1.15,2013-06-05 21:47:00,
2013-06-05 17:49:00,77.5,62.0,30.01,SSE,148,4.0,6.0,59,0.00,,,0.00,Wunderground v.1.15,2013-06-05 21:49:00,
2013-06-05 17:53:00,77.5,61.6,30.01,SE,139,4.0,6.0,58,0.00,,,0.00,Wunderground v.1.15,2013-06-05 21:53:00,
2013-06-05 17:54:00,77.5,61.6,30.01,ESE,117,5.0,6.0,58,0.00,,,0.00,Wunderground v.1.15,2013-06-05 21:54:00,
2013-06-05 17:55:00,77.5,61.6,30.01,ESE,117,5.0,6.0,58,0.00,,,0.00,Wunderground v.1.15,2013-06-05 21:55:00,
2013-06-05 17:56:00,77.5,62.0,30.01,SW,218,5.0,7.0,59,0.00,,,0.00,Wunderground v.1.15,2013-06-05 21:56:00,
2013-06-05 18:02:00,77.7,62.2,30.01,East,101,5.0,7.0,59,0.00,,,0.00,Wunderground v.1.15,2013-06-05 22:02:00,
2013-06-05 18:03:00,77.7,62.2,30.01,SSE,153,5.0,7.0,59,0.00,,,0.00,Wunderground v.1.15,2013-06-05 22:03:00,
2013-06-05 18:06:00,77.8,62.3,30.01,SSE,151,5.0,7.0,59,0.00,,,0.00,Wunderground v.1.15,2013-06-05 22:06:00,
2013-06-05 18:07:00,77.8,62.3,30.01,SSE,148,5.0,7.0,59,0.00,,,0.00,Wunderground v.1.15,2013-06-05 22:07:00,
2013-06-05 18:09:00,77.8,62.8,30.01,South,181,4.0,7.0,60,0.00,,,0.00,Wunderground v.1.15,2013-06-05 22:09:00,
2013-06-05 18:14:00,77.6,62.1,30.00,East,97,4.0,5.0,59,0.00,,,0.00,Wunderground v.1.15,2013-06-05 22:14:00,
2013-06-05 18:15:00,77.6,62.1,30.00,SE,138,4.0,6.0,59,0.00,,,0.00,Wunderground v.1.15,2013-06-05 22:15:00,
2013-06-05 18:16:00,77.5,62.0,30.00,SE,139,4.0,6.0,59,0.00,,,0.00,Wunderground v.1.15,2013-06-05 22:16:00,
2013-06-05 18:20:00,77.2,62.2,30.00,SSW,195,4.0,4.0,60,0.00,,,0.00,Wunderground v.1.15,2013-06-05 22:20:00,
2013-06-05 18:21:00,77.2,62.2,30.00,SSE,160,4.0,7.0,60,0.00,,,0.00,Wunderground v.1.15,2013-06-05 22:21:00,
2013-06-05 18:24:00,77.2,62.7,30.00,SW,216,4.0,7.0,61,0.00,,,0.00,Wunderground v.1.15,2013-06-05 22:24:00,
2013-06-05 18:26:00,77.3,62.3,30.00,SSE,148,4.0,7.0,60,0.00,,,0.00,Wunderground v.1.15,2013-06-05 22:26:00,
2013-06-05 18:30:00,77.2,62.7,30.00,ESE,113,3.0,3.0,61,0.00,,,0.00,Wunderground v.1.15,2013-06-05 22:30:00,
2013-06-05 18:32:00,77.1,62.6,30.00,ESE,117,3.0,4.0,61,0.00,,,0.00,Wunderground v.1.15,2013-06-05 22:32:00,
2013-06-05 18:34:00,76.9,62.0,30.00,SSE,150,3.0,4.0,60,0.00,,,0.00,Wunderground v.1.15,2013-06-05 22:34:00,
2013-06-05 18:35:00,76.8,61.9,30.00,ESE,108,3.0,4.0,60,0.00,,,0.00,Wunderground v.1.15,2013-06-05 22:35:00,
2013-06-05 18:39:00,76.3,61.9,30.00,ESE,108,3.0,4.0,61,0.00,,,0.00,Wunderground v.1.15,2013-06-05 22:39:00,
2013-06-05 18:40:00,76.3,61.9,30.00,SE,131,3.0,3.0,61,0.00,,,0.00,Wunderground v.1.15,2013-06-05 22:40:00,
2013-06-05 18:44:00,76.0,62.0,30.00,South,190,3.0,6.0,62,0.00,,,0.00,Wunderground v.1.15,2013-06-05 22:44:00,
2013-06-05 18:47:00,75.8,61.8,30.00,ESE,120,3.0,6.0,62,0.00,,,0.00,Wunderground v.1.15,2013-06-05 22:47:00,
2013-06-05 18:50:00,75.6,61.7,30.00,SSW,198,3.0,9.0,62,0.00,,,0.00,Wunderground v.1.15,2013-06-05 22:50:00,
2013-06-05 18:53:00,75.4,61.9,30.00,ESE,110,4.0,9.0,63,0.00,,,0.00,Wunderground v.1.15,2013-06-05 22:53:00,
2013-06-05 18:54:00,75.4,61.9,30.00,ESE,120,4.0,9.0,63,0.00,,,0.00,Wunderground v.1.15,2013-06-05 22:54:00,
2013-06-05 18:55:00,75.4,61.9,30.00,SE,131,4.0,9.0,63,0.00,,,0.00,Wunderground v.1.15,2013-06-05 22:55:00,
2013-06-05 18:57:00,75.3,61.8,30.00,ESE,123,3.0,9.0,63,0.00,,,0.00,Wunderground v.1.15,2013-06-05 22:57:00,
2013-06-05 18:59:00,75.3,61.8,30.00,SSW,192,3.0,9.0,63,0.00,,,0.00,Wunderground v.1.15,2013-06-05 22:59:00,
2013-06-05 19:01:00,75.3,62.3,30.00,SE,141,3.0,3.0,64,0.00,,,0.00,Wunderground v.1.15,2013-06-05 23:01:00,
2013-06-05 19:02:00,75.2,62.2,30.00,SE,142,3.0,4.0,64,0.00,,,0.00,Wunderground v.1.15,2013-06-05 23:02:00,
2013-06-05 19:05:00,75.1,62.1,30.00,SE,142,3.0,4.0,64,0.00,,,0.00,Wunderground v.1.15,2013-06-05 23:05:00,
2013-06-05 19:06:00,75.1,61.6,30.00,SSE,158,3.0,4.0,63,0.00,,,0.00,Wunderground v.1.15,2013-06-05 23:06:00,
2013-06-05 19:07:00,75.1,61.6,30.00,SSW,200,3.0,4.0,63,0.00,,,0.00,Wunderground v.1.15,2013-06-05 23:07:00,
2013-06-05 19:12:00,74.9,61.5,30.00,SSW,200,3.0,4.0,63,0.00,,,0.00,Wunderground v.1.15,2013-06-05 23:12:00,
2013-06-05 19:13:00,74.9,61.5,30.00,SSW,199,3.0,4.0,63,0.00,,,0.00,Wunderground v.1.15,2013-06-05 23:13:00,
2013-06-05 19:15:00,74.8,61.4,30.00,SE,139,3.0,5.0,63,0.00,,,0.00,Wunderground v.1.15,2013-06-05 23:15:00,
2013-06-05 19:16:00,74.8,61.4,30.00,ESE,122,4.0,5.0,63,0.00,,,0.00,Wunderground v.1.15,2013-06-05 23:16:00,
2013-06-05 19:18:00,74.7,61.7,30.00,ESE,122,3.0,5.0,64,0.00,,,0.00,Wunderground v.1.15,2013-06-05 23:18:00,
2013-06-05 19:19:00,74.7,61.7,30.00,SE,145,3.0,5.0,64,0.00,,,0.00,Wunderground v.1.15,2013-06-05 23:19:00,
2013-06-05 19:20:00,74.6,61.2,30.00,SSE,164,3.0,5.0,63,0.00,,,0.00,Wunderground v.1.15,2013-06-05 23:20:00,
2013-06-05 19:22:00,74.6,61.6,30.00,SSW,203,3.0,4.0,64,0.00,,,0.00,Wunderground v.1.15,2013-06-05 23:22:00,
2013-06-05 19:23:00,74.6,61.6,30.00,SSW,197,3.0,4.0,64,0.00,,,0.00,Wunderground v.1.15,2013-06-05 23:23:00,
2013-06-05 19:24:00,74.5,61.5,30.00,ESE,121,3.0,5.0,64,0.00,,,0.00,Wunderground v.1.15,2013-06-05 23:24:00,
2013-06-05 19:27:00,74.5,61.5,30.01,ESE,103,3.0,5.0,64,0.00,,,0.00,Wunderground v.1.15,2013-06-05 23:27:00,
2013-06-05 19:28:00,74.4,61.9,30.01,SSW,193,3.0,5.0,65,0.00,,,0.00,Wunderground v.1.15,2013-06-05 23:28:00,
2013-06-05 19:33:00,74.3,61.8,30.01,SE,129,2.0,3.0,65,0.00,,,0.00,Wunderground v.1.15,2013-06-05 23:33:00,
2013-06-05 19:34:00,74.3,61.8,30.01,South,188,2.0,3.0,65,0.00,,,0.00,Wunderground v.1.15,2013-06-05 23:34:00,
2013-06-05 19:35:00,74.3,61.8,30.01,SE,136,2.0,3.0,65,0.00,,,0.00,Wunderground v.1.15,2013-06-05 23:35:00,
2013-06-05 19:36:00,74.2,61.7,30.01,SE,139,2.0,3.0,65,0.00,,,0.00,Wunderground v.1.15,2013-06-05 23:36:00,
2013-06-05 19:42:00,74.1,61.1,30.01,ESE,120,3.0,4.0,64,0.00,,,0.00,Wunderground v.1.15,2013-06-05 23:42:00,
2013-06-05 19:43:00,74.0,61.5,30.01,SSE,155,3.0,4.0,65,0.00,,,0.00,Wunderground v.1.15,2013-06-05 23:43:00,
2013-06-05 19:45:00,74.0,61.5,30.01,SE,131,3.0,6.0,65,0.00,,,0.00,Wunderground v.1.15,2013-06-05 23:45:00,
2013-06-05 19:49:00,73.8,61.3,30.01,SSW,198,3.0,6.0,65,0.00,,,0.00,Wunderground v.1.15,2013-06-05 23:49:00,
2013-06-05 19:50:00,73.8,61.3,30.01,SSW,193,3.0,6.0,65,0.00,,,0.00,Wunderground v.1.15,2013-06-05 23:50:00,
2013-06-05 19:51:00,73.8,61.3,30.01,ESE,115,3.0,3.0,65,0.00,,,0.00,Wunderground v.1.15,2013-06-05 23:51:00,
2013-06-05 19:53:00,73.8,61.3,30.01,SSW,192,3.0,5.0,65,0.00,,,0.00,Wunderground v.1.15,2013-06-05 23:53:00,
2013-06-05 19:54:00,73.7,61.2,30.01,SE,134,3.0,5.0,65,0.00,,,0.00,Wunderground v.1.15,2013-06-05 23:54:00,
2013-06-05 19:55:00,73.7,61.2,30.01,SSW,212,3.0,5.0,65,0.00,,,0.00,Wunderground v.1.15,2013-06-05 23:55:00,
2013-06-05 20:00:00,73.6,61.5,30.01,South,190,3.0,3.0,66,0.00,,,0.00,Wunderground v.1.15,2013-06-06 00:00:00,
2013-06-05 20:01:00,73.6,61.5,30.01,SE,131,3.0,3.0,66,0.00,,,0.00,Wunderground v.1.15,2013-06-06 00:01:00,
2013-06-05 20:02:00,73.6,61.5,30.01,South,170,3.0,3.0,66,0.00,,,0.00,Wunderground v.1.15,2013-06-06 00:02:00,
2013-06-05 20:04:00,73.6,61.1,30.01,SSW,204,3.0,11.0,65,0.00,,,0.00,Wunderground v.1.15,2013-06-06 00:04:00,
2013-06-05 20:05:00,73.5,61.4,30.01,SSW,204,4.0,11.0,66,0.00,,,0.00,Wunderground v.1.15,2013-06-06 00:05:00,
2013-06-05 20:08:00,73.5,61.4,30.01,SSW,209,4.0,11.0,66,0.00,,,0.00,Wunderground v.1.15,2013-06-06 00:08:00,
2013-06-05 20:09:00,73.4,61.3,30.01,SSW,197,4.0,11.0,66,0.00,,,0.00,Wunderground v.1.15,2013-06-06 00:09:00,
2013-06-05 20:11:00,73.4,61.3,30.01,South,184,4.0,4.0,66,0.00,,,0.00,Wunderground v.1.15,2013-06-06 00:11:00,
2013-06-05 20:13:00,73.3,61.7,30.01,ESE,120,4.0,4.0,67,0.00,,,0.00,Wunderground v.1.15,2013-06-06 00:13:00,
2013-06-05 20:14:00,73.3,61.3,30.01,SSW,212,3.0,6.0,66,0.00,,,0.00,Wunderground v.1.15,2013-06-06 00:14:00,
2013-06-05 20:15:00,73.2,61.2,30.01,SE,130,3.0,6.0,66,0.00,,,0.00,Wunderground v.1.15,2013-06-06 00:15:00,
2013-06-05 20:18:00,73.2,61.2,30.01,South,190,3.0,8.0,66,0.00,,,0.00,Wunderground v.1.15,2013-06-06 00:18:00,
2013-06-05 20:19:00,73.2,61.2,30.01,SSE,149,4.0,8.0,66,0.00,,,0.00,Wunderground v.1.15,2013-06-06 00:19:00,
2013-06-05 20:23:00,73.2,61.2,30.01,SSE,156,4.0,8.0,66,0.00,,,0.00,Wunderground v.1.15,2013-06-06 00:23:00,
2013-06-05 20:25:00,73.2,61.2,30.01,SSW,212,4.0,8.0,66,0.00,,,0.00,Wunderground v.1.15,2013-06-06 00:25:00,
2013-06-05 20:27:00,73.1,61.5,30.01,SSW,208,4.0,8.0,67,0.00,,,0.00,Wunderground v.1.15,2013-06-06 00:27:00,
2013-06-05 20:28:00,73.0,61.4,30.01,South,191,3.0,8.0,67,0.00,,,0.00,Wunderground v.1.15,2013-06-06 00:28:00,
2013-06-05 20:31:00,72.9,61.3,30.01,South,174,3.0,6.0,67,0.00,,,0.00,Wunderground v.1.15,2013-06-06 00:31:00,
2013-06-05 20:33:00,72.8,61.2,30.01,South,172,3.0,6.0,67,0.00,,,0.00,Wunderground v.1.15,2013-06-06 00:33:00,
2013-06-05 20:36:00,72.7,61.1,30.01,SSW,205,4.0,6.0,67,0.00,,,0.00,Wunderground v.1.15,2013-06-06 00:36:00,
2013-06-05 20:39:00,72.6,61.4,30.01,South,184,5.0,9.0,68,0.00,,,0.00,Wunderground v.1.15,2013-06-06 00:39:00,
2013-06-05 20:40:00,72.5,61.3,30.01,ESE,105,5.0,5.0,68,0.00,,,0.00,Wunderground v.1.15,2013-06-06 00:40:00,
2013-06-05 20:41:00,72.5,61.3,30.01,SSW,207,5.0,6.0,68,0.00,,,0.00,Wunderground v.1.15,2013-06-06 00:41:00,
2013-06-05 20:42:00,72.5,61.3,30.01,SSW,201,4.0,6.0,68,0.00,,,0.00,Wunderground v.1.15,2013-06-06 00:42:00,
2013-06-05 20:47:00,72.3,61.1,30.01,SSW,209,4.0,7.0,68,0.00,,,0.00,Wunderground v.1.15,2013-06-06 00:47:00,
2013-06-05 20:49:00,72.2,61.0,30.01,SSW,212,4.0,7.0,68,0.00,,,0.00,Wunderground v.1.15,2013-06-06 00:49:00,
2013-06-05 20:50:00,72.1,61.0,30.01,SSW,203,4.0,5.0,68,0.00,,,0.00,Wunderground v.1.15,2013-06-06 00:50:00,
2013-06-05 20:51:00,72.1,61.4,30.01,SSW,193,4.0,5.0,69,0.00,,,0.00,Wunderground v.1.15,2013-06-06 00:51:00,
2013-06-05 20:55:00,71.9,61.2,30.01,SSW,193,4.0,5.0,69,0.00,,,0.00,Wunderground v.1.15,2013-06-06 00:55:00,
2013-06-05 20:56:00,71.9,61.2,30.01,SSW,195,4.0,5.0,69,0.00,,,0.00,Wunderground v.1.15,2013-06-06 00:56:00,
2013-06-05 20:57:00,71.9,61.2,30.01,SSW,201,4.0,5.0,69,0.00,,,0.00,Wunderground v.1.15,2013-06-06 00:57:00,
2013-06-05 21:02:00,71.7,61.4,30.00,SW,228,3.0,4.0,70,0.00,,,0.00,Wunderground v.1.15,2013-06-06 01:02:00,
2013-06-05 21:03:00,71.6,61.3,30.01,WSW,245,3.0,4.0,70,0.00,,,0.00,Wunderground v.1.15,2013-06-06 01:03:00,
2013-06-05 21:05:00,71.5,61.2,30.01,ESE,123,3.0,4.0,70,0.00,,,0.00,Wunderground v.1.15,2013-06-06 01:05:00,
2013-06-05 21:07:00,71.4,61.1,30.01,SSW,197,2.0,4.0,70,0.00,,,0.00,Wunderground v.1.15,2013-06-06 01:07:00,
2013-06-05 21:08:00,71.3,61.0,30.01,SSW,212,2.0,4.0,70,0.00,,,0.00,Wunderground v.1.15,2013-06-06 01:08:00,
2013-06-05 21:09:00,71.2,60.9,30.01,SSW,200,2.0,4.0,70,0.00,,,0.00,Wunderground v.1.15,2013-06-06 01:09:00,
2013-06-05 21:12:00,71.1,61.2,30.01,SSW,205,2.0,2.0,71,0.00,,,0.00,Wunderground v.1.15,2013-06-06 01:12:00,
2013-06-05 21:14:00,71.0,61.1,30.01,SSW,205,2.0,2.0,71,0.00,,,0.00,Wunderground v.1.15,2013-06-06 01:14:00,
2013-06-05 21:15:00,71.0,61.1,30.01,SSW,212,2.0,2.0,71,0.00,,,0.00,Wunderground v.1.15,2013-06-06 01:15:00,
2013-06-05 21:16:00,70.9,61.0,30.01,SSW,200,2.0,2.0,71,0.00,,,0.00,Wunderground v.1.15,2013-06-06 01:16:00,
2013-06-05 21:20:00,70.7,60.8,30.00,SSW,195,2.0,3.0,71,0.00,,,0.00,Wunderground v.1.15,2013-06-06 01:20:00,
2013-06-05 21:23:00,70.6,61.1,30.01,SSW,207,2.0,5.0,72,0.00,,,0.00,Wunderground v.1.15,2013-06-06 01:23:00,
2013-06-05 21:24:00,70.6,61.1,30.01,SSW,200,2.0,5.0,72,0.00,,,0.00,Wunderground v.1.15,2013-06-06 01:24:00,
2013-06-05 21:25:00,70.6,61.1,30.01,SSW,192,2.0,5.0,72,0.00,,,0.00,Wunderground v.1.15,2013-06-06 01:25:00,
2013-06-05 21:31:00,70.5,61.0,30.01,SSW,198,2.0,2.0,72,0.00,,,0.00,Wunderground v.1.15,2013-06-06 01:31:00,
2013-06-05 21:33:00,70.4,60.9,30.01,SSW,204,2.0,2.0,72,0.00,,,0.00,Wunderground v.1.15,2013-06-06 01:33:00,
2013-06-05 21:35:00,70.4,60.9,30.01,South,186,1.0,2.0,72,0.00,,,0.00,Wunderground v.1.15,2013-06-06 01:35:00,
2013-06-05 21:37:00,70.3,60.8,30.01,South,191,1.0,2.0,72,0.00,,,0.00,Wunderground v.1.15,2013-06-06 01:37:00,
2013-06-05 21:41:00,70.3,60.8,30.01,WSW,248,1.0,1.0,72,0.00,,,0.00,Wunderground v.1.15,2013-06-06 01:41:00,
2013-06-05 21:42:00,70.3,61.2,30.01,SW,217,1.0,2.0,73,0.00,,,0.00,Wunderground v.1.15,2013-06-06 01:42:00,
2013-06-05 21:43:00,70.3,61.2,30.01,SSW,193,1.0,2.0,73,0.00,,,0.00,Wunderground v.1.15,2013-06-06 01:43:00,
2013-06-05 21:46:00,70.3,60.8,30.01,SSW,195,1.0,2.0,72,0.00,,,0.00,Wunderground v.1.15,2013-06-06 01:46:00,
2013-06-05 21:49:00,70.3,60.8,30.01,SSE,167,1.0,2.0,72,0.00,,,0.00,Wunderground v.1.15,2013-06-06 01:49:00,
2013-06-05 21:50:00,70.3,60.8,30.01,ESE,112,1.0,1.0,72,0.00,,,0.00,Wunderground v.1.15,2013-06-06 01:50:00,
2013-06-05 21:52:00,70.2,60.7,30.01,SSW,201,1.0,1.0,72,0.00,,,0.00,Wunderground v.1.15,2013-06-06 01:52:00,
2013-06-05 21:53:00,70.2,60.7,30.01,SSW,206,1.0,2.0,72,0.00,,,0.00,Wunderground v.1.15,2013-06-06 01:53:00,
2013-06-05 21:55:00,70.2,60.7,30.01,SW,224,1.0,2.0,72,0.00,,,0.00,Wunderground v.1.15,2013-06-06 01:55:00,
2013-06-05 21:57:00,70.3,60.8,30.01,WSW,240,1.0,3.0,72,0.00,,,0.00,Wunderground v.1.15,2013-06-06 01:57:00,
2013-06-05 21:58:00,70.3,60.8,30.01,WSW,249,1.0,3.0,72,0.00,,,0.00,Wunderground v.1.15,2013-06-06 01:58:00,
2013-06-05 21:59:00,70.3,60.8,30.01,West,264,1.0,3.0,72,0.00,,,0.00,Wunderground v.1.15,2013-06-06 01:59:00,
2013-06-05 22:01:00,70.2,60.4,30.01,SSW,195,1.0,2.0,71,0.00,,,0.00,Wunderground v.1.15,2013-06-06 02:01:00,
2013-06-05 22:03:00,70.2,60.4,30.01,SSW,201,2.0,2.0,71,0.00,,,0.00,Wunderground v.1.15,2013-06-06 02:03:00,
2013-06-05 22:04:00,70.2,60.4,30.01,SSW,210,2.0,3.0,71,0.00,,,0.00,Wunderground v.1.15,2013-06-06 02:04:00,
2013-06-05 22:05:00,70.2,60.4,30.01,SSW,209,2.0,3.0,71,0.00,,,0.00,Wunderground v.1.15,2013-06-06 02:05:00,
2013-06-05 22:07:00,70.2,60.4,30.01,South,181,2.0,3.0,71,0.00,,,0.00,Wunderground v.1.15,2013-06-06 02:07:00,
2013-06-05 22:08:00,70.3,60.4,30.01,SSE,160,2.0,3.0,71,0.00,,,0.00,Wunderground v.1.15,2013-06-06 02:08:00,
2013-06-05 22:11:00,70.3,60.4,30.01,SSW,203,2.0,3.0,71,0.00,,,0.00,Wunderground v.1.15,2013-06-06 02:11:00,
2013-06-05 22:13:00,70.4,60.1,30.01,SE,133,2.0,3.0,70,0.00,,,0.00,Wunderground v.1.15,2013-06-06 02:13:00,
2013-06-05 22:15:00,70.5,60.2,30.01,South,190,3.0,3.0,70,0.00,,,0.00,Wunderground v.1.15,2013-06-06 02:15:00,
2013-06-05 22:16:00,70.5,60.2,30.01,SE,132,2.0,3.0,70,0.00,,,0.00,Wunderground v.1.15,2013-06-06 02:16:00,
2013-06-05 22:17:00,70.5,60.2,30.01,SW,226,2.0,3.0,70,0.00,,,0.00,Wunderground v.1.15,2013-06-06 02:17:00,
2013-06-05 22:18:00,70.5,60.2,30.01,WSW,237,2.0,3.0,70,0.00,,,0.00,Wunderground v.1.15,2013-06-06 02:18:00,
2013-06-05 22:21:00,70.5,60.2,30.02,South,180,2.0,2.0,70,0.00,,,0.00,Wunderground v.1.15,2013-06-06 02:21:00,
2013-06-05 22:23:00,70.6,60.3,30.02,SSW,200,2.0,3.0,70,0.00,,,0.00,Wunderground v.1.15,2013-06-06 02:23:00,
2013-06-05 22:24:00,70.7,60.4,30.02,South,191,2.0,3.0,70,0.00,,,0.00,Wunderground v.1.15,2013-06-06 02:24:00,
2013-06-05 22:26:00,70.7,60.4,30.02,SSW,194,2.0,3.0,70,0.00,,,0.00,Wunderground v.1.15,2013-06-06 02:26:00,
2013-06-05 22:27:00,70.7,60.4,30.02,SSW,205,2.0,3.0,70,0.00,,,0.00,Wunderground v.1.15,2013-06-06 02:27:00,
2013-06-05 22:30:00,70.7,60.4,30.02,SSW,200,2.0,2.0,70,0.00,,,0.00,Wunderground v.1.15,2013-06-06 02:30:00,
2013-06-05 22:33:00,70.8,60.5,30.02,WSW,240,2.0,2.0,70,0.00,,,0.00,Wunderground v.1.15,2013-06-06 02:33:00,
2013-06-05 22:35:00,70.9,60.6,30.02,WSW,239,1.0,2.0,70,0.00,,,0.00,Wunderground v.1.15,2013-06-06 02:35:00,
2013-06-05 22:37:00,70.9,60.2,30.02,WSW,239,1.0,2.0,69,0.00,,,0.00,Wunderground v.1.15,2013-06-06 02:37:00,
2013-06-05 22:38:00,70.9,60.2,30.02,SW,227,1.0,2.0,69,0.00,,,0.00,Wunderground v.1.15,2013-06-06 02:38:00,
2013-06-05 22:41:00,70.8,60.1,30.02,SSW,212,1.0,2.0,69,0.00,,,0.00,Wunderground v.1.15,2013-06-06 02:41:00,
2013-06-05 22:43:00,70.8,60.1,30.02,WSW,252,1.0,2.0,69,0.00,,,0.00,Wunderground v.1.15,2013-06-06 02:43:00,
2013-06-05 22:47:00,70.9,60.2,30.02,SSW,197,2.0,3.0,69,0.00,,,0.00,Wunderground v.1.15,2013-06-06 02:47:00,
2013-06-05 22:49:00,71.0,60.3,30.03,West,280,2.0,4.0,69,0.00,,,0.00,Wunderground v.1.15,2013-06-06 02:49:00,
2013-06-05 22:50:00,71.0,59.9,30.02,WSW,238,2.0,4.0,68,0.00,,,0.00,Wunderground v.1.15,2013-06-06 02:50:00,
2013-06-05 22:53:00,71.2,60.5,30.02,West,264,3.0,4.0,69,0.00,,,0.00,Wunderground v.1.15,2013-06-06 02:53:00,
2013-06-05 22:54:00,71.2,60.5,30.02,SW,236,3.0,4.0,69,0.00,,,0.00,Wunderground v.1.15,2013-06-06 02:54:00,
2013-06-05 22:55:00,71.1,60.8,30.02,SW,236,3.0,4.0,70,0.00,,,0.00,Wunderground v.1.15,2013-06-06 02:55:00,
2013-06-05 22:57:00,71.1,60.8,30.02,SW,231,2.0,4.0,70,0.00,,,0.00,Wunderground v.1.15,2013-06-06 02:57:00,
2013-06-05 22:59:00,71.0,60.7,30.02,WSW,245,2.0,4.0,70,0.00,,,0.00,Wunderground v.1.15,2013-06-06 02:59:00,
2013-06-05 23:00:00,71.0,60.7,30.02,WSW,240,2.0,2.0,70,0.00,,,0.00,Wunderground v.1.15,2013-06-06 03:00:00,
2013-06-05 23:03:00,70.9,60.2,30.02,SSW,198,2.0,2.0,69,0.00,,,0.00,Wunderground v.1.15,2013-06-06 03:03:00,
2013-06-05 23:05:00,70.9,60.6,30.02,WSW,245,2.0,2.0,70,0.00,,,0.00,Wunderground v.1.15,2013-06-06 03:05:00,
2013-06-05 23:07:00,70.9,60.6,30.02,WSW,238,2.0,2.0,70,0.00,,,0.00,Wunderground v.1.15,2013-06-06 03:07:00,
2013-06-05 23:08:00,70.9,60.6,30.02,WSW,250,2.0,2.0,70,0.00,,,0.00,Wunderground v.1.15,2013-06-06 03:08:00,
2013-06-05 23:09:00,70.8,60.5,30.02,WSW,242,2.0,2.0,70,0.00,,,0.00,Wunderground v.1.15,2013-06-06 03:09:00,
2013-06-05 23:10:00,70.8,60.1,30.02,WSW,255,2.0,2.0,69,0.00,,,0.00,Wunderground v.1.15,2013-06-06 03:10:00,
2013-06-05 23:12:00,70.9,60.2,30.02,SSW,198,2.0,2.0,69,0.00,,,0.00,Wunderground v.1.15,2013-06-06 03:12:00,
2013-06-05 23:15:00,70.8,60.1,30.02,SSW,193,2.0,2.0,69,0.00,,,0.00,Wunderground v.1.15,2013-06-06 03:15:00,
2013-06-05 23:17:00,70.8,60.5,30.02,WSW,245,2.0,2.0,70,0.00,,,0.00,Wunderground v.1.15,2013-06-06 03:17:00,
2013-06-05 23:18:00,70.7,60.4,30.02,SW,236,2.0,2.0,70,0.00,,,0.00,Wunderground v.1.15,2013-06-06 03:18:00,
2013-06-05 23:21:00,70.8,60.1,30.01,SSW,212,2.0,2.0,69,0.00,,,0.00,Wunderground v.1.15,2013-06-06 03:21:00,
2013-06-05 23:24:00,70.8,60.1,30.02,SSW,209,2.0,5.0,69,0.00,,,0.00,Wunderground v.1.15,2013-06-06 03:24:00,
2013-06-05 23:25:00,70.7,60.0,30.01,SW,231,2.0,5.0,69,0.00,,,0.00,Wunderground v.1.15,2013-06-06 03:25:00,
2013-06-05 23:30:00,70.8,60.1,30.02,West,263,2.0,2.0,69,0.00,,,0.00,Wunderground v.1.15,2013-06-06 03:30:00,
2013-06-05 23:31:00,70.8,60.1,30.02,SW,214,2.0,2.0,69,0.00,,,0.00,Wunderground v.1.15,2013-06-06 03:31:00,
2013-06-05 23:33:00,70.8,60.1,30.02,SSW,192,2.0,4.0,69,0.00,,,0.00,Wunderground v.1.15,2013-06-06 03:33:00,
2013-06-05 23:34:00,70.8,59.7,30.02,SSE,155,3.0,5.0,68,0.00,,,0.00,Wunderground v.1.15,2013-06-06 03:34:00,
2013-06-05 23:36:00,70.9,59.4,30.02,SSW,207,3.0,5.0,67,0.00,,,0.00,Wunderground v.1.15,2013-06-06 03:36:00,
2013-06-05 23:38:00,71.0,59.5,30.01,SSW,193,3.0,5.0,67,0.00,,,0.00,Wunderground v.1.15,2013-06-06 03:38:00,
2013-06-05 23:39:00,71.0,59.5,30.02,SSW,197,4.0,5.0,67,0.00,,,0.00,Wunderground v.1.15,2013-06-06 03:39:00,
2013-06-05 23:40:00,71.1,59.6,30.01,SSW,204,4.0,5.0,67,0.00,,,0.00,Wunderground v.1.15,2013-06-06 03:40:00,
2013-06-05 23:43:00,71.1,59.6,30.02,SW,222,4.0,11.0,67,0.00,,,0.00,Wunderground v.1.15,2013-06-06 03:43:00,
2013-06-05 23:45:00,71.2,59.3,30.02,SSW,205,5.0,11.0,66,0.00,,,0.00,Wunderground v.1.15,2013-06-06 03:45:00,
2013-06-05 23:46:00,71.2,59.3,30.02,SSW,210,5.0,11.0,66,0.00,,,0.00,Wunderground v.1.15,2013-06-06 03:46:00,
2013-06-05 23:49:00,71.2,59.7,30.02,WSW,243,4.0,11.0,67,0.00,,,0.00,Wunderground v.1.15,2013-06-06 03:49:00,
2013-06-05 23:52:00,71.1,60.0,30.02,SW,228,4.0,4.0,68,0.00,,,0.00,Wunderground v.1.15,2013-06-06 03:52:00,
2013-06-05 23:53:00,71.1,60.0,30.02,West,280,4.0,4.0,68,0.00,,,0.00,Wunderground v.1.15,2013-06-06 03:53:00,
2013-06-05 23:54:00,71.0,59.9,30.02,SW,236,4.0,4.0,68,0.00,,,0.00,Wunderground v.1.15,2013-06-06 03:54:00,
2013-06-05 23:59:00,70.9,59.8,30.01,WSW,237,3.0,4.0,68,0.00,,,0.00,Wunderground v.1.15,2013-06-06 03:59:00,